     2              OBSERVATION DATA    GPS                 RINEX VERSION / TYPE
teqc 2000Feb29 20021016 17:29:42UTC                         PGM / RUN BY / DATE
                                                            COMMENT
L2: 1 -> 1; 5 -> 5; 60 -> 9                                 COMMENT
L2: 1 -> 1; 5 -> 5; 60 -> 9                                 COMMENT
L2: 1 -> 1; 5 -> 5; 60 -> 9                                 COMMENT
L2: 1 -> 1; 5 -> 5; 60 -> 9                                 COMMENT
L2: 1 -> 1; 5 -> 5; 60 -> 9                                 COMMENT
Original Marker Name: DUFO                                  COMMENT
Campaign Name: Yolo County Subsidence 2002                  COMMENT
4-Character Station Name: DUFO                              COMMENT
6-Character Antenna Code: TRMCMP                            COMMENT
Vertical Measurement Point: BPA                             COMMENT
Vertical Offset to Rinex Ref. Point: 0.0000                 COMMENT
Radial Measurement Point: RRP                               COMMENT
Radial Offset to Rinex Ref. Point: 0.0000                   COMMENT
Antenna Height from Field Measurement: 2.0000 m             COMMENT
Additional Antenna Identification Info.:                    COMMENT
Model 22020.00+GP                                           COMMENT
Original XYZ: -2627403.0559 -4230275.6489 3971863.9701      COMMENT
New XYZ position is based on association with SCEC monument COMMENT
E1O4H0I9+0011. Position of that monument is believed to be  COMMENT
valid to within 1 m horizontally; vertical accuracy         COMMENT
should be no worse than 3-times this value.                 COMMENT
                                                            COMMENT
Revised Rinex header created by UCSD GPS archive for        COMMENT
GSAC on 27-Jun-2003 (2003:178) 16:38:31 GMT                 COMMENT
For assistance contact dagnew@ucsd.edu                      COMMENT
or anderson@python.ucsd.edu                                 COMMENT
                                                            COMMENT
DUFOUR                                                      MARKER NAME
DUFO                                                        MARKER NUMBER
-Unknown- YOLO_COUNTY                                       OBSERVER / AGENCY
3912 TRIMBLE 4000 SSI NP 7.29; SP 3.07                      REC # / TYPE / VERS
0220059298 TR GEOD L1/L2 GP                                 ANT # / TYPE
 -2627403.2046 -4230277.5489  3971860.7844                  APPROX POSITION XYZ
        2.0000        0.0000        0.0000                  ANTENNA: DELTA H/E/N
     1     1     0                                          WAVELENGTH FACT L1/2
     7    C1    L1    L2    P1    P2    S1    S2            # / TYPES OF OBSERV
     0                                                      INTERVAL
  2002     7     8    16    46   15.000000                  TIME OF FIRST OBS
  2002     7     8    17    30   15.000000                  TIME OF LAST OBS
                                                            END OF HEADER
 02  7  8 16 46 15.0000000  0  9G26G29G 6G23G15G17G18G21G22
  22132304.6954       2195.61156
        19.5004
  22988793.9844      12557.00056
        15.2504
  21526789.6724      23953.04157
        24.2504
  22243021.0704      37978.08157
        23.2504
  20472864.8054      -1239.63457
        27.7504
  20531754.6024       5486.77557
        25.2504
  20610274.6174     -14423.85657
        23.5004
  22775735.9614     -15679.08756
        16.2504
  23235990.3524      12691.05856
        13.0004
 02  7  8 16 46 30.0000000  0  9G26G29G 6G23G15G17G18G21G22
  22135549.2424      19246.40546
        19.7504
  22993418.6954      36860.89546
        15.2504
  21535475.8524      69599.59647
        24.0004
  22251517.8054      82627.71247
        23.2504
  20472556.2504      -2859.50547
        27.7504
  20533042.4304      12254.25647
        25.0004
  20608194.8204     -25352.44547        -0.24657                  20608200.7624
        23.2504         27.2504
  22770275.5474     -44374.88946
        16.2504
  23240661.6094      37236.00846
        12.7504
 02  7  8 16 46 45.0000000  0  9G26G29G 6G23G15G17G18G21G22
  22138972.7114      37236.13247
        20.2504
  22998216.8054      62073.88446
        15.5004
  21544328.8054     116120.69347      2433.56256                  21544336.0984
        23.7504         25.2504
  22260172.1804     128106.83847     14246.42356                  22260178.8364
        22.7504         22.7504
  20472408.0864      -3637.67948
        28.2504
  20534488.9614      19855.78747      2840.41357                  20534495.2664
        25.0004         26.7504
  20606285.0084     -35389.57047     -7821.37747                  20606290.9384
        23.5004         27.5004
  22764975.2114     -72227.35646
        15.7504
  23245502.2894      62677.22046
        12.7504
 02  7  8 16 47  0.0000000  0  9G26G29G 6G23G15G17G18G21G22
  22142557.2894      56075.09547      5945.36756                  22142563.6174
        20.5004         19.0004
  23003170.8444      88106.13146     17613.02356                  23003177.6294
        16.0004         15.5004
  21553330.7584     163426.61347     39295.29046                  21553337.8164
        23.5004         24.7504
  22268967.2894     174325.53847     50260.99946                  22268974.0514
        23.0004         22.7504
  20472403.6724      -3663.78248        14.08857                  20472410.0704
        28.0004         28.2504
  20536077.2344      28201.91947      9343.89847                  20536083.5164
        25.2504         26.7504
  20604527.4384     -44624.79547    -15017.65247                  20604533.3094
        23.2504         27.5004
  22759818.6724     -99325.91946
        16.0004
  23250497.5314      88924.84646     16407.39456                  23250505.9494
        12.5004         13.5004
 02  7  8 16 47 15.0000000  0  9G26G29G 6G23G15G17G18G21G22
  22146291.1094      75694.45147     21233.16046                  22146297.1214
        20.5004         18.7504
  23008267.3674     114888.86946     38482.67946                  23008274.1414
        15.7504         15.5004
  21562468.8834     211448.35447     76714.79546                  21562475.8714
        23.5004         24.7504
  22277889.8594     221214.75147     86798.03346                  22277896.6454
        23.5004         22.5004
  20472528.4144      -3006.46048       526.27247                  20472534.5204
        28.2504         28.2504
  20537793.9924      37223.88447     16373.99247                  20537800.1214
        25.5004         26.7504
  20602909.7974     -53126.95247    -21642.71347                  20602915.4694
        23.2504         27.2504
  22754791.8284    -125739.16846     -9540.37856                  22754800.2344
        16.0004         17.7504
  23255632.4064     115909.91246     37434.70046                  23255639.8054
        12.2504         13.0004
 02  7  8 16 47 30.0000000  0  9G26G29G 6G23G15G17G18G21G22
  22150162.7424      96039.91047     37086.76846                  22150169.0944
        20.2504         18.7504
  23013496.1484     142367.57946     59894.64146                  23013502.7934
        15.5004         15.2504
  21571733.2814     260131.38047    114649.57846                  21571740.1764
        23.2504         24.7504
  22286930.0234     268719.94447    123815.05246                  22286936.7504
        23.2504         22.5004
  20472773.3444      -1719.95548      1528.73747                  20472779.3444
        28.2504         28.0004
  20539629.2974      46867.42547     23888.42747                  20539635.3444
        25.2504         26.7504
  20601421.0474     -60950.34047    -27738.86047                  20601426.8014
        23.5004         27.5004
  22749885.7504    -151521.12846    -29630.15246                  22749894.1454
        16.0004         17.5004
  23260897.1174     143577.79945     58994.03446                  23260905.0204
        11.7504         13.2504
 02  7  8 16 47 45.0000000  0  9G26G29G 6G23G15G17G18G21G22
  22154163.4694     117065.85146     53470.62446                  22154169.7624
        19.7504         19.0004
  23018849.2894     170496.75746     81813.47346                  23018856.0514
        15.7504         15.5004
  21581114.3204     309429.98247    153064.04246                  21581121.3324
        23.7504         24.5004
  22296078.3364     316795.27147    161276.33346                  22296085.1564
        22.7504         22.7504
  20473129.1884        150.17548      2985.97647                  20473135.2584
        28.7504         28.2504
  20541573.8444      57087.07747     31851.78247                  20541579.8674
        25.2504         26.5004
  20600052.6644     -68140.46647    -33341.55147                  20600058.4064
        23.7504         27.7504
  22745091.3054    -176717.69846    -49263.79546                  22745100.1214
        16.2504         18.2504
  23266283.5004     171882.72045     81049.78146                  23266291.0514
        11.2504         13.2504
 02  7  8 16 48  0.0000000  0  9G26G29G 6G23G15G17G18G21G22
  22158285.7664     138727.66946     70349.96946                  22158292.3634
        19.7504         19.0004
  23024317.2504     199231.63846    104204.27646                  23024324.2734
        15.7504         15.2504
  21590604.3674     359299.54147    191923.40646                  21590611.3204
        23.7504         24.7504
  22305326.6024     365396.03147    199147.04246                  22305333.1414
        23.0004         22.7504
  20473587.7114       2559.47848      4863.34547                  20473593.7704
        28.7504         28.5004
  20543619.7664      67838.35147     40229.39847                  20543625.8014
        25.2504         26.5004
  20598796.5704     -74741.80447    -38485.44747                  20598802.4654
        23.5004         27.7504
  22740399.5164    -201373.15446    -68475.79846                  22740408.2274
        16.5004         18.2504
  23271782.4304     200780.02945    103567.15046                  23271790.7194
        11.0004         13.0004
 02  7  8 16 48 15.0000000  0  9G26G29G 6G23G15G17G18G21G22
  22162521.6024     160986.02447     87694.14746                  22162528.2584
        20.0004         19.0004
  23029892.9304     228532.84746    127036.36046                  23029899.6914
        16.0004         15.5004
  21600195.3054     409700.50747    231196.85046                  21600202.3634
        23.5004         24.7504
  22314667.7894     414482.65547    237396.34546                  22314674.4344
        23.5004         22.5004
  20474141.2194       5468.68348      7130.24847                  20474147.3484
        28.2504         28.5004
  20545759.4694      79081.95647     48990.63747                  20545765.7624
        25.0004         26.7504
  20597644.8914     -80793.64847    -43201.16547                  20597650.5984
        23.7504         28.0004
  22735803.1724    -225526.67546    -87296.68346                  22735812.1054
        16.2504         18.2504
  23277386.4534     230230.02345    126515.16146                  23277394.4264
        10.7504         13.0004
 02  7  8 16 48 30.0000000  0  9G26G29G 6G23G15G17G18G21G22
  22166864.9534     183810.39246    105479.37046                  22166871.7154
        19.7504         18.7504
  23035570.9694     258369.78446    150285.91646                  23035578.4144
        15.7504         15.2504
  21609881.5554     460602.25847    270860.51746                  21609888.3984
        23.7504         24.5004
  22324095.3524     464024.46647    276000.34046                  22324101.9384
        22.5004         22.7504
  20474784.2114       8847.39648      9763.00747                  20474790.5164
        28.2504         28.5004
  20547986.8594      90787.53547     58111.85947                  20547993.1054
        25.2504         27.0004
  20596592.2194     -86326.30947    -47512.32847                  20596597.8324
        24.2504         28.0004
  22731296.6414    -249208.66546   -105750.14046                  22731305.4574
        16.5004         17.7504
  23283090.0314     260202.13145    149870.01046                  23283098.7304
        10.7504         13.0004
 02  7  8 16 48 45.0000000  0  9G26G29G 6G23G15G17G18G21G22
  22171309.6094     207168.17947    123680.25146                  22171316.5274
        20.2504         19.2504
  23041344.1954     288709.80246    173927.47446                  23041351.3014
        15.2504         15.5004
  21619657.2424     511972.08147    310888.91946                  21619664.1484
        23.7504         24.5004
  22333603.0164     513988.56147    314933.39246                  22333609.6844
        22.5004         22.5004
  20475510.4454      12663.06348     12736.25247                  20475516.6914
        28.5004         28.2504
  20550296.2424     102922.59447     67567.75047                  20550302.2894
        25.0004         26.7504
  20595632.0164     -91372.39047    -51444.33547                  20595637.6764
        24.0004         28.0004
  22726873.6334    -272451.47346   -123861.38646                  22726882.1564
        16.7504         18.2504
  23288886.9694     290663.49845    173606.09246                  23288895.6684
        11.0004         12.7504
 02  7  8 16 49  0.0000000  0  9G26G29G 6G23G15G17G18G21G22
  22175851.2504     231035.32747    142278.04246                  22175857.9414
        20.2504         19.0004
  23047209.2974     319528.68146    197942.17646                  23047216.3914
        15.0004         15.5004
  21629516.9614     563785.80947    351263.22346                  21629523.9264
        23.5004         24.5004
  22343186.5784     564350.66747    354176.57546                  22343193.3984
        23.2504         22.5004
  20476314.8444      16891.81648     16031.38247                  20476320.9614
        28.7504         28.0004
  20552682.6334     115463.09147     77339.55947                  20552688.7974
        25.0004         26.5004
  20594759.7194     -95955.83947    -55015.85147                  20594765.4844
        23.5004         28.0004
  22722529.9844    -295278.93046   -141648.97046                  22722538.6374
        16.7504         18.2504
  23294772.3134     321589.91745    197704.58646                  23294780.2034
        11.5004         13.0004
 02  7  8 16 49 15.0000000  0  9G26G29G 6G23G15G17G18G21G22
  22180486.2424     255391.89746    161257.18246                  22180493.1844
        19.5004         19.0004
  23053160.6804     350806.54646    222314.52846                  23053167.3244
        16.0004         15.2504
  21639457.2894     616023.43247    391967.82746                  21639464.2424
        23.0004         24.5004
  22352842.4924     615090.72147    393714.27046                  22352849.3524
        23.0004         22.2504
  20477194.5084      21513.75748     19632.88447                  20477200.5784
        28.5004         28.2504
  20555142.1254     128389.28747     87411.90947                  20555148.1254
        25.5004         26.5004
  20593971.8524    -100096.57347    -58242.39047                  20593977.8164
        23.5004         27.7504
  22718260.8204    -317711.02146   -159128.47846                  22718269.5204
        16.7504         18.5004
  23300741.8204     352961.16545    222149.67746                  23300749.9574
        11.7504         12.7504
 02  7  8 16 49 30.0000000  0  9G26G29G 6G23G15G17G18G21G22
  22185210.3984     280217.50147    180601.81946                  22185217.0204
        20.0004         19.0004
  23059196.3054     382523.04146    247028.66246                  23059203.2934
        15.7504         15.2504
  21649474.6024     668664.45247    432986.77146                  21649481.4734
        23.2504         24.2504
  22362565.6724     666188.19347    433530.47046                  22362572.3984
        22.0004         22.5004
  20478145.2424      26508.70448     23525.04447                  20478151.3364
        28.0004         28.2504
  20557671.6954     141680.87547     97768.98747                  20557677.8014
        25.0004         26.5004
  20593263.9144    -103814.98747    -61139.85147                  20593269.8554
        23.2504         27.7504
  22714063.7114    -339767.89946   -176315.62346                  22714071.7304
        17.5004         18.7504
  23306792.6644     384756.82645    246925.48846                  23306800.5204
        11.7504         12.2504
 02  7  8 16 49 45.0000000  0  9G26G29G 6G23G15G17G18G21G22
  22190021.3364     305498.18646    200301.06546                  22190027.6644
        19.2504         18.7504
  23065312.7194     414663.98746    272073.54246                  23065319.9184
        15.5004         15.2504
  21659565.9924     721694.72147    474309.02946                  21659572.8524
        23.5004         24.5004
  22372354.4304     717628.99247    473614.19746                  22372361.1214
        23.2504         22.2504
  20479163.9384      31862.80048     27697.06647                  20479170.1604
        28.2504         28.2504
  20560267.8054     155324.01547    108399.99247                  20560273.8404
        24.7504         26.2504
  20592634.2814    -107124.77747    -63718.90147                  20592640.1994
        23.5004         27.7504
  22709934.8984    -361463.10246   -193220.95046                  22709943.0124
        17.5004         18.7504
  23312921.2974     416962.73445    272020.95746                  23312929.2344
        11.7504         12.7504
 02  7  8 16 50  0.0000000  0  9G26G29G 6G23G15G17G18G21G22
  22194917.0784     331227.07346    220349.54346                  22194923.5474
        19.2504         19.0004
  23071508.2814     447222.48546    297443.78846                  23071514.7854
        15.5004         15.0004
  21669730.0314     775107.25647    515929.15046                  21669737.1024
        23.2504         24.5004
  22382207.6564     769406.07347    513959.95846                  22382214.3364
        23.0004         22.2504
  20480249.9304      37569.18648     32143.59647                  20480256.3164
        28.2504         28.5004
  20562929.6484     169311.99347    119299.70847                  20562935.9884
        24.7504         26.5004
  20592080.8204    -110032.80947    -65984.90047                  20592086.6564
        23.2504         27.5004
  22705874.3284    -382803.69146   -209849.94446                  22705882.6174
        17.7504         18.5004
  23319126.5474     449571.82345    297430.60646                  23319134.4844
        11.7504         13.5004
 02  7  8 16 50 15.0000000  0  9G26G29G 6G23G15G17G18G21G22
  22199894.6564     357385.31246    240732.59346                  22199901.0084
        19.7504         19.0004
  23077779.7424     480179.61546    323124.67346                  23077786.4224
        15.5004         15.2504
  21679963.2894     828883.14147    557832.40046                  21679970.4304
        23.0004         24.2504
  22392120.7194     821500.41347    554552.93946                  22392127.3874
        22.5004         22.2504
  20481399.1094      43609.19448     36850.09347                  20481405.6254
        28.7504         28.5004
  20565653.4924     183626.14947    130453.59047                  20565659.8914
        24.2504         26.5004
  20591600.3754    -112557.86247    -67952.46847                  20591606.2814
        23.0004         27.7504
  22701877.0864    -403808.43746   -226217.24346                  22701885.0594
        17.7504         18.2504
  23325404.8284     482565.02845    323139.56446                  23325413.1884
        11.5004         13.0004
 02  7  8 16 50 30.0000000  0  9G26G29G 6G23G15G17G18G21G22
  22204951.6024     383957.98446    261438.58346                  22204958.0004
        19.7504         18.7504
  23084124.4144     513520.39746    349104.48946                  23084131.2584
        15.2504         15.5004
  21690262.9614     883007.31947    600007.05146                  21690269.9844
        22.7504         24.2504
  22402091.1954     873896.81247    595381.28746                  22402097.6414
        22.7504         22.0004
  20482609.4384      49968.02448     41805.02147                  20482615.7424
        28.7504         28.5004
  20568436.6414     198251.45247    141849.92847                  20568442.9574
        24.5004         26.5004
  20591189.8284    -114714.79347    -69633.18447                  20591195.7464
        22.7504         27.5004
  22697940.9224    -424492.06546   -242334.33146                  22697948.7774
        18.0004         18.5004
  23331753.7664     515927.33845    349136.11646                  23331761.2344
        11.7504         13.5004
 02  7  8 16 50 45.0000000  0  9G26G29G 6G23G15G17G18G21G22
  22210085.8984     410939.18346    282462.89546                  22210092.6254
        19.5004         18.7504
  23090540.7894     547239.05146    375378.81146                  23090547.0124
        15.2504         14.2504
  21700627.4844     937473.79047    642448.41946                  21700634.2704
        23.2504         23.7504
  22412118.5234     926589.23447    636440.30046                  22412125.2504
        22.7504         22.0004
  20483878.9454      56639.90948     47003.89047                  20483885.0274
        28.0004         28.0004
  20571277.7504     213182.30047    153484.34547                  20571283.9494
        24.7504         26.5004
  20590848.5554    -116509.38947    -71031.56247                  20590854.6134
        23.2504         27.7504
  22694065.1644    -444860.19746   -258205.58046                  22694072.8204
        18.2504         18.2504
  23338171.2114     549652.68245    375415.48046                  23338179.1844
        11.7504         12.7504
 02  7  8 16 51  0.0000000  0  9G26G29G 6G23G15G17G18G21G22
  22215295.5084     438315.68146    303795.23746                  22215302.2234
        19.7504         18.5004
  23097026.7814     581322.06846    401936.93546                  23097033.3094
        15.2504         14.5004
  21711054.6954     992269.16147    685146.08146                  21711061.7194
        22.7504         24.0004
  22422199.2974     979564.20547    677719.48846                  22422205.9774
        21.7504         21.7504
  20485205.6094      63611.67248     52436.43047                  20485211.5984
        28.2504         28.0004
  20574174.7274     228405.48347    165346.55947                  20574180.8794
        24.5004         26.5004
  20590573.2344    -117954.76747    -72157.83347                  20590579.1764
        23.5004         28.0004
  22690246.6094    -464925.81746   -273841.10346                  22690254.2664
        18.2504         18.5004
  23344655.6644     583727.54845
        11.7504
 02  7  8 16 51 15.0000000  0  9G26G29G 6G23G15G17G18G21G22
  22220579.8204     466084.91746    325433.60946                  22220586.3134
        19.2504         18.7504
  23103581.0474     615766.80646    428776.98346                  23103588.2234
        14.7504         15.2504
  21721544.0784    1047390.79747    728097.96746                  21721551.1844
        22.2504         23.7504
  22432333.2344    1032818.98547    719216.70746                  22432339.5634
        22.0004         22.0004
  20486588.8914      70880.89448     58100.75247                  20486594.8444
        28.5004         28.0004
  20577126.9304     243918.59147    177434.68847                  20577132.9884
        25.0004         26.7504
  20590364.4924    -119053.37447    -73013.88447                  20590370.2584
        23.5004         27.7504
  22686485.4454    -484691.35246   -289242.78646                  22686493.0084
        18.2504         18.0004
  23351205.7344     618149.20445
        11.5004
 02  7  8 16 51 30.0000000  0  9G26G29G 6G23G15G17G18G21G22
  22225937.2584     494238.67046    347371.59746                  22225943.9734
        19.5004         18.2504
  23110203.1094     650565.17846    455892.60146                  23110210.0274
        15.2504         15.5004
  21732093.6954    1102830.45547    771297.66246                  21732100.7074
        22.7504         23.7504
  22442519.1954    1086345.36247    760925.55846                  22442525.9454
        22.5004         22.0004
  20488027.3054      78439.68848     63990.71647                  20488033.3404
        28.7504         28.0004
  20580132.6484     259713.63847    189742.50647                  20580138.7544
        25.0004         26.5004
  20590219.6414    -119813.32447    -73606.05247                  20590225.4654
        23.5004         28.0004
  22682779.8984    -504164.70346   -304416.81146                  22682787.7074
        17.7504         18.0004
  23357820.6094     652909.44445      3624.27156                  23357828.6414
        11.5004         13.7504
 02  7  8 16 51 45.0000000  0  9G26G29G 6G23G15G17G18G21G22
  22231366.3204     522768.17146    369602.38946                  22231372.9654
        19.7504         18.7504
  23116890.5164     685708.24646    483276.79246                  23116897.4224
        14.7504         15.0004
  21742702.7194    1158579.11447    814738.14046                  21742709.8364
        22.5004         23.7504
  22452754.7734    1140134.28147    802838.98246                  22452761.0554
        22.5004         22.0004
  20489519.1884      86279.23748     70099.45347                  20489525.3284
        28.2504         28.2504
  20583190.2974     275781.82147    202263.15947                  20583196.4144
        25.0004         26.5004
  20590137.9304    -120243.44947    -73941.21447                  20590143.8014
        23.7504         27.7504
  22679127.9534    -523354.54846   -319369.90346                  22679135.5984
        17.7504         18.2504
  23364497.8754     687999.14645     30966.86246                  23364506.3984
        11.2504         13.2504
 02  7  8 16 52  0.0000000  0  9G26G29G 6G23G15G17G18G21G22
  22236866.0864     551670.32347    392123.54446                  22236872.6604
        20.0004         18.7504
  23123643.1334     721192.88846    510927.16846                  23123650.0514
        14.7504         15.5004
  21753369.4614    1214633.60047    858416.92846                  21753376.5664
        22.0004         23.7504
  22463039.7114    1194182.50247    844954.46246                  22463046.1094
        22.0004         22.0004
  20491063.7034      94396.62848     76424.69347                  20491069.8094
        28.0004         28.2504
  20586299.3524     292120.22947    214994.38147                  20586305.5984
        25.2504         26.7504
  20590118.1414    -120346.66947    -74021.64447                  20590123.7664
        23.5004         27.7504
  22675529.6724    -542264.00046   -334104.51346                  22675537.9614
        18.0004         18.5004
  23371237.4064     723415.03745     58563.64746                  23371246.2344
        11.0004         13.0004
 02  7  8 16 52 15.0000000  0  9G26G29G 6G23G15G17G18G21G22
  22242434.0944     580931.79946    414924.69046                  22242440.4104
        19.5004         19.0004
  23130457.6884     757005.72346    538833.26246                  23130464.4144
        15.0004         15.0004
  21764092.0234    1270980.48447    902323.55346                  21764098.9654
        22.5004         23.5004
  22473371.5474    1248476.55147    887261.49846                  22473377.9574
        22.2504         21.7504
  20492658.8674     102778.63748     82956.12747                  20492664.9614
        28.2504         28.0004
  20589457.3444     308715.76847    227925.96647                  20589463.3794
        25.0004         26.7504
  20590158.2034    -120136.19347    -73857.63247                  20590164.1334
        23.5004         27.7504
  22671982.1174    -560906.21146   -348630.88846                  22671990.1724
        18.2504         18.5004
  23378035.9384     759143.65445     86404.09246                  23378045.1644
        11.0004         13.0004
 02  7  8 16 52 30.0000000  0  9G26G29G 6G23G15G17G18G21G22
  22248070.5704     610550.48346    438004.19346                  22248076.7814
        19.5004         18.7504
  23137335.3364     793144.55046    566993.37446                  23137342.3244
        15.2504         15.0004
  21774869.5784    1327617.56347    946456.30846                  21774876.6254
        22.7504         23.5004
  22483749.8284    1303014.14447    929758.31046                  22483756.2624
        22.0004         21.7504
  20494303.9384     111423.25748     89692.19047                  20494310.0784
        28.2504         28.0004
  20592663.9694     325566.36547    241056.29447                  20592670.0864
        24.7504         26.7504
  20590257.7114    -119613.98547    -73450.71647                  20590263.3364
        23.7504         27.7504
  22668485.1884    -579283.08246   -362950.50346                  22668493.4184
        18.2504         19.0004
  23384894.1024     795182.77045    114486.47646                  23384902.9304
        10.7504         12.7504
 02  7  8 16 52 45.0000000  0  9G26G29G 6G23G15G17G18G21G22
  22253773.3914     640518.89346    461356.19546                  22253779.8714
        19.5004         18.7504
  23144272.7584     829601.78946    595401.60646                  23144279.5904
        15.2504         15.0004
  21785700.9844    1384537.27947    990809.29346                  21785708.2074
        22.7504         23.5004
  22494172.8594    1357787.66447    972438.95546                  22494179.4924
        21.7504         21.7504
  20495997.4384     120323.19948     96627.20247                  20496003.6134
        28.0004         27.7504
  20595917.5394     342664.59547    254379.58447                  20595923.7504
        25.2504         26.7504
  20590414.8674    -118787.47947    -72806.68447                  20590420.4694
        23.5004         27.7504
  22665037.1484    -597401.91846   -377069.04346                  22665045.6484
        18.2504         19.0004
  23391810.0394     831524.58745    142804.74046                  23391818.8674
        11.0004         12.5004
 02  7  8 16 53  0.0000000  0  9G26G29G 6G23G15G17G18G21G22
  22259541.6094     670830.70546    484975.78546                  22259548.3364
        19.0004         18.7504
  23151269.5864     866371.26246    624053.12946                  23151276.1724
        15.0004         15.0004
  21796585.0704    1441733.26447   1035377.55846                  21796592.1174
        23.0004         23.5004
  22504639.5004    1412790.68947   1015298.43946                  22504646.2384
        22.0004         21.5004
  20497738.4774     129472.27548    103756.35547                  20497744.6054
        28.0004         28.0004
  20599217.4454     360004.45647    267891.15947                  20599223.8444
        24.7504         26.7504
  20590629.1094    -117662.90347    -71930.38847                  20590634.7814
        23.5004         27.5004
  22661637.3054    -615268.88946   -390991.33646                  22661645.4534
        18.5004         19.0004
  23398781.8524     868162.85045    171354.00546                  23398790.1174
        11.0004         12.5004
 02  7  8 16 53 15.0000000  0  9G26G29G 6G23G15G17G18G21G22
  22265375.2974     701487.06046    508863.85146                  22265382.0704
        19.2504         18.7504
  23158326.3674     903453.89446    652948.69146                  23158332.7304
        15.2504         15.0004
  21807522.1174    1499206.48447   1080161.85046                  21807529.1994
        22.7504         23.5004
  22515150.4064    1468024.07047   1058337.41646                  22515157.3714
        22.2504         21.5004
  20499526.9694     138871.82648    111080.67647                  20499533.2504
        28.0004         28.0004
  20602562.9304     377587.15047    281591.95247                  20602569.3054
        24.7504         26.5004
  20590899.8524    -116239.04447    -70820.88547                  20590905.5824
        23.2504         27.0004
  22658285.6884    -632882.66346   -404716.34346                  22658293.3324
        18.5004         19.0004
  23405810.4844     905098.34945    200134.87146                  23405818.9024
        11.0004         13.2504
 02  7  8 16 53 30.0000000  0  9G26G29G 6G23G15G17G18G21G22
  22271273.2034     732480.04446    533014.22746                  22271279.9534
        19.2504         18.7504
  23165440.8984     940841.74146    682082.06246                  23165447.2624
        15.2504         14.5004
  21818510.2034    1556948.90447   1125155.90546                  21818517.0744
        23.0004         23.2504
  22525702.8364    1523479.72547   1101549.60046                  22525709.7304
        21.7504         21.5004
  20501361.8204     148514.07747    118594.11647                  20501368.2304
        27.7504         28.0004
  20605953.8364     395404.98147    295475.97047                  20605960.3164
        24.7504         26.7504
  20591226.2114    -114523.73947    -69484.28447                  20591231.9064
        23.2504         27.0004
  22654980.5084    -650250.78046   -418249.92246                  22654988.5394
        18.7504         19.0004
  23412894.4304     942322.99545    229141.05046                  23412903.2344
        11.2504         12.5004
 02  7  8 16 53 45.0000000  0  9G26G29G 6G23G15G17G18G21G22
  22277235.0314     763810.57846    557427.63346                  22277241.5354
        19.5004         19.0004
  23172613.6254     978535.67646    711453.94746                  23172620.6844
        15.0004         14.7504
  21829549.4844    1614961.37147   1170360.39646                  21829556.3674
        22.7504         23.0004
  22536298.3524    1579158.52847   1144935.65946                  22536305.1374
        22.5004         21.7504
  20503243.0784     158400.03547    126297.46547                  20503249.4534
        27.2504         28.0004
  20609389.2194     413458.92947    309543.97747                  20609395.3834
        24.5004         26.7504
  20591608.1414    -112515.91747    -67919.74247                  20591613.8714
        23.0004         27.5004
  22651722.3364    -667372.23346   -431591.28146                  22651730.4384
        19.0004         19.5004
  23420033.0784     979837.59745    258373.16746                  23420041.1804
        11.2504         12.2504
 02  7  8 16 54  0.0000000  0  9G26G29G 6G23G15G17G18G21G22
  22283259.8444     795470.88347    582097.98946                  22283266.7034
        20.0004         18.7504
  23179843.6564    1016527.95346    741058.32246                  23179850.7154
        14.7504         14.5004
  21840638.8054    1673236.01047   1215769.16646                  21840645.8524
        22.0004         23.0004
  22546934.7344    1635052.53947   1188489.40946                  22546941.3674
        22.0004         21.7504
  20505169.4694     168522.12147    134184.80247                  20505175.9384
        27.7504         28.0004
  20612868.5004     431741.31547    323789.98247                  20612874.8164
        25.0004         26.7504
  20592044.3834    -110223.34447    -66133.32147                  20592050.1024
        23.2504         27.2504
  22648510.0944    -684254.59946   -444746.35046                  22648518.1724
        19.5004         19.7504
  23427225.5234    1017634.29345    287825.10446                  23427233.4384
        11.0004         12.5004
 02  7  8 16 54 15.0000000  0  9G26G29G 6G23G15G17G18G21G22
  22289346.7424     827457.06346    607022.28846                  22289353.1994
        19.7504         18.5004
  23187129.2344    1054814.58746    770892.05246                  23187136.0204
        14.7504         14.2504
  21851777.2424    1731768.81547   1261379.10346                  21851784.0744
        22.0004         23.0004
  22557611.2034    1691157.68147   1232207.68946                  22557618.0354
        21.5004         21.5004
  20507139.6024     178876.57448    142253.20047                  20507146.0354
        28.0004         28.0004
  20616390.0164     450248.51247    338211.17447                  20616396.3324
        24.7504         27.0004
  20592534.4844    -107649.71347    -64127.89347                  20592540.2384
        23.2504         27.5004
  22645342.0474    -700901.69046   -457718.09746                  22645349.9144
        19.2504         20.0004
  23434471.1094    1055708.82445    317493.52746                  23434479.5394
        11.0004         12.5004
 02  7  8 16 54 30.0000000  0  9G26G29G 6G23G15G17G18G21G22
  22295495.4384     859769.60946    632200.89246                  22295501.9414
        19.5004         18.7504
  23194471.1804    1093395.86746    800955.37246                  23194477.6374
        14.7504         14.5004
  21862964.7894    1790560.13747   1307190.48346                  21862971.7894
        22.0004         22.7504
  22568327.7664    1747474.30247   1276090.75046                  22568334.6604
        21.7504         21.2504
  20509154.5164     189464.01648    150503.14747                  20509160.6214
        28.2504         28.0004
  20619955.0004     468980.95147    352807.87247                  20619961.3634
        24.7504         27.0004
  20593077.7504    -104794.44247    -61903.00047                  20593083.3524
        23.2504         27.5004
  22642219.0164    -717312.85846   -470505.99746                  22642227.0824
        19.2504         20.0004
  23441769.5004    1094061.62545    347378.78846                  23441777.9414
        11.0004         12.7504
 02  7  8 16 54 45.0000000  0  9G26G29G 6G23G15G17G18G21G22
  22301704.8134     892401.13246    657628.06046                  22301711.2464
        19.0004         18.5004
  23201867.4224    1132264.48546    831242.60146                  23201873.8324
        14.7504         14.7504
  21874200.3834    1849602.59847   1353197.56546                  21874207.3954
        21.7504         22.7504
  22579083.5474    1803994.89147   1320132.74946                  22579090.2384
        21.7504         21.2504
  20511212.2034     200277.19248    158929.00047                  20511218.4144
        28.2504         28.0004
  20623561.0164     487931.74147    367574.71747                  20623567.2854
        25.2504         27.0004
  20593673.3204    -101664.80647    -59464.31747                  20593679.0394
        23.5004         27.7504
  22639139.4614    -733495.31246   -483115.67046                  22639147.4104
        18.7504         20.0004
  23449119.2734    1132685.23845    377475.08346                  23449127.3054
        10.7504         12.0004
 02  7  8 16 55  0.0000000  0  9G26G29G 6G23G15G17G18G21G22
  22307974.9064     925348.46846    683301.30146                  22307981.3874
        19.2504         18.5004
  23209317.8834    1171417.32846    861751.30746                  23209324.6914
        14.5004         14.5004
  21885482.9534    1908892.95647   1399397.80346                  21885489.9304
        22.2504         22.5004
  22589877.0004    1860716.20547   1364331.15946                  22589883.7734
        21.2504         21.2504
  20513312.3444     211313.13948    167528.43847                  20513318.4384
        28.5004         28.0004
  20627208.2424     507097.66947    382509.20347                  20627214.5234
        25.0004         26.7504
  20594320.4614     -98263.78747    -56814.17647                  20594326.0514
        23.7504         28.0004
  22636103.2274    -749452.05646   -495549.47646                  22636111.3054
        18.7504         19.7504
  23456520.1644    1171576.22845    407779.72346                  23456528.1844
        10.7504         12.2504
 02  7  8 16 55 15.0000000  0  9G26G29G 6G23G15G17G18G21G22
  22314303.2584     958605.41446    709215.80046                  22314309.5044
        19.5004         18.5004
  23216821.4844    1210848.00646    892476.47846                  23216828.1764
        14.7504         14.7504
  21896811.4924    1968424.79447   1445786.21246                  21896818.7154
        22.0004         22.7504
  22600707.8054    1917631.84747   1408680.98946                  22600715.1454
        21.2504         21.2504
  20515453.6414     222565.69648    176296.66047                  20515459.8634
        28.7504         28.5004
  20630895.0634     526472.80047    397606.70247                  20630901.0984
        25.5004         26.7504
  20595018.1884     -94597.72247    -53957.49847                  20595023.9774
        23.7504         27.7504
  22633108.3754    -765189.14746   -507812.11546                  22633116.6524
        18.7504         20.0004
  23463970.0864    1210728.29345    438287.79346                  23463978.0124
        10.5004         12.2504
 02  7  8 16 55 30.0000000  0  9G26G29G 6G23G15G17G18G21G22
  22320691.3674     992175.50246    735374.31046                  22320697.7304
        19.2504         18.2504
  23224378.6254    1250560.01246    923420.90146                  23224385.4574
        14.7504         14.5004
  21908186.6884    2028201.53947   1492365.45446                  21908193.8054
        21.7504         22.5004
  22611576.4454    1974745.12847   1453184.82546                  22611583.7854
        21.5004         21.0004
  20517636.8134     234038.52948    185236.53147                  20517643.2934
        28.2504         28.2504
  20634622.5944     546060.53847    412869.86547                  20634628.5594
        25.7504         26.5004
  20595766.7034     -90662.96147    -50891.45147                  20595772.4344
        23.7504         27.7504
  22630156.0704    -780702.81746   -519900.66046                  22630163.9964
        19.2504         20.0004
  23471470.6804    1250144.68145    469001.80546                  23471479.1454
        10.5004         12.0004
 02  7  8 16 55 45.0000000  0  9G26G29G 6G23G15G17G18G21G22
  22327137.5864    1026050.04646    761770.05546                  22327143.9734
        19.2504         18.2504
  23231987.4224    1290544.58946    954577.70246                  23231993.9384
        15.0004         14.5004
  21919606.8524    2088214.48647   1539128.75346                  21919613.7814
        21.7504         22.7504
  22622480.4384    2032047.32747   1497835.87346                  22622487.5314
        21.2504         21.0004
  20519860.0944     245723.24548    194341.50447                  20519866.3404
        28.0004         28.2504
  20638388.8674     565852.54347    428292.20147                  20638394.8794
        25.5004         26.7504
  20596565.0864     -86468.01647    -47622.65947                  20596570.8874
        23.5004         27.7504
  22627244.9614    -796001.44446   -531821.64246                  22627252.8404
        19.0004         20.0004
  23479020.2424    1289816.64245    499914.99546                  23479028.0044
        10.7504         12.5004
 02  7  8 16 56  0.0000000  0  9G26G29G 6G23G15G17G18G21G22
  22333641.3444    1060228.02346    788402.24146                  22333647.8484
        18.7504         18.5004
  23239647.4844    1330800.71346    985946.08346                  23239653.8714
        14.5004         14.5004
  21931071.7974    2148462.58647   1586075.29246                  21931078.7854
        22.7504         22.7504
  22633420.2734    2089537.28147   1542633.22346                  22633427.0124
        21.2504         20.7504
  20522124.0004     257619.01348    203610.93447                  20522130.3284
        28.2504         28.0004
  20642193.8284     585848.07247    443873.12447                  20642199.9454
        25.2504         26.5004
  20597412.8204     -82013.67147    -44151.73547                  20597418.6094
        23.7504         27.5004
  22624374.6484    -811085.92246   -543575.74046                  22624382.7504
        19.0004         20.5004
  23486617.6094    1329742.97045    531026.37146                  23486626.3204
        10.5004         12.5004
 02  7  8 16 56 15.0000000  0  9G26G29G 6G23G15G17G18G21G22
  22340203.2664    1094709.54146    815270.95646                  22340209.9574
        18.7504         18.5004
  23247359.8674    1371328.54246   1017526.21746                  23247366.1724
        14.5004         14.5004
  21942581.6254    2208945.79747   1633205.03146                  21942588.4844
        22.7504         22.7504
  22644396.2114    2147215.00047   1587576.88146                  22644403.2704
        20.7504         20.7504
  20524427.9614     269726.05048    213044.98347                  20524434.2194
        28.0004         28.0004
  20646037.7664     606047.36547    459612.83347                  20646043.9774
        24.7504         26.5004
  20598309.8134     -77299.74947    -40478.55147                  20598315.5664
        23.5004         27.7504
  22621544.7424    -825955.81346   -555162.63946                  22621552.5164
        19.2504         20.2504
  23494263.6954    1369923.70845    562335.98445                  23494272.8754
        10.2504         11.7504
 02  7  8 16 56 30.0000000  0  9G26G29G 6G23G15G17G18G21G22
  22346821.2814    1129489.67946    842372.35846                  22346827.7974
        18.7504         18.5004
  23255122.8524    1412123.06046   1049314.12246                  23255129.8284
        14.0004         14.2504
  21954134.5554    2269659.07647   1680514.04046                  21954141.7074
        22.2504         22.7504
  22655406.4304    2205075.37747   1632662.87146                  22655413.4064
        21.0004         20.7504
  20526771.0634     282039.65048    222639.99247                  20526777.4024
        28.0004         28.0004
  20649919.3834     626445.56347    475507.52147                  20649925.6054
        24.7504         26.5004
  20599255.1174     -72331.16447    -36606.92047                  20599260.8594
        23.2504         27.5004
  22618754.8594    -840615.91046   -566586.05746                  22618763.0204
        18.7504         20.2504
  23501957.8054    1410353.73345    593839.86945                  23501966.3284
        10.2504         11.7504
 02  7  8 16 56 45.0000000  0  9G26G29G 6G23G15G17G18G21G22
  22353496.2504    1164565.96346    869704.53246                  22353502.9064
        19.2504         18.5004
  23262935.9534    1453181.79646   1081307.93046                  23262942.8834
        14.0004         14.2504
  21965731.3834    2330599.98447   1728000.42446                  21965738.3834
        21.7504         22.5004
  22666451.4304    2263115.85247   1677889.20146                  22666458.2034
        21.2504         20.7504
  20529152.9694     294557.55647    232394.20847                  20529159.5664
        27.7504         28.2504
  20653838.5944     647040.38447    491555.43147                  20653844.6414
        25.2504         26.2504
  20600248.5314     -67110.25247    -32538.67447                  20600254.1334
        23.7504         27.5004
  22616004.5944    -855068.54346   -577847.82346                  22616012.8014
        18.7504         20.0004
  23509698.0554    1451030.40745    625535.94346                  23509706.5664
        10.0004         12.2504
 02  7  8 16 57  0.0000000  0  9G26G29G 6G23G15G17G18G21G22
  22360226.5004    1199934.28046    897264.25946                  22360233.3444
        19.2504         18.5004
  23270798.7584    1494500.45646   1113504.29046                  23270805.1334
        14.5004         14.0004
  21977370.7424    2391764.21047   1775660.82046                  21977377.8364
        21.7504         22.5004
  22677529.6644    2321332.12447   1723252.51746                  22677536.5234
        21.0004         20.7504
  20531573.1724     307275.70047    242304.45047                  20531579.6644
        27.7504         28.2504
  20657794.2274     667827.86447    507753.46047                  20657800.2734
        24.7504         26.2504
  20601289.4304     -61641.07547    -28276.97747                  20601295.0904
        23.5004         27.5004
  22613293.1094    -869317.69146   -588951.02846                  22613301.3284
        18.5004         20.0004
  23517484.7814    1491949.52045    657420.91346                  23517493.7974
        10.0004         12.2504
 02  7  8 16 57 15.0000000  0  9G26G29G 6G23G15G17G18G21G22
  22367012.9064    1235595.22246    925052.00746                  22367019.6334
        19.2504         18.7504
  23278711.1804    1536079.62646   1145903.62146                  23278717.7544
        14.7504         14.7504
  21989052.3834    2453152.32347   1823495.67246                  21989059.7114
        21.7504         22.5004
  22688641.4144    2379724.75447   1768753.25146                  22688648.5204
        20.7504         20.5004
  20534031.5004     320194.94748    252371.39747                  20534037.7584
        28.2504         28.0004
  20661786.7894     688808.92847    524102.33447                  20661792.8134
        25.0004         26.0004
  20602377.5314     -55922.80747    -23821.18147                  20602383.2854
        23.5004         27.5004
  22610620.4694    -883362.52346   -599895.01846                  22610628.8404
        18.2504         19.7504
  23525317.9304    1533111.32745    689495.01046                  23525326.5474
        10.5004         12.2504
 02  7  8 16 57 30.0000000  0  9G26G29G 6G23G15G17G18G21G22
  22373852.8594    1271541.67046    953062.23046                  22373859.4694
        18.7504         18.5004
  23286671.5084    1577912.19146   1178500.42146                  23286678.1054
        14.7504         14.2504
  22000775.4694    2514757.00047   1871499.28646                  22000782.7034
        21.7504         22.2504
  22699785.0314    2438286.42047   1814385.70446                  22699791.7584
        20.7504         20.7504
  20536527.2034     333308.26548    262589.56247                  20536533.3794
        28.2504         28.0004
  20665814.7894     709976.39747    540596.46547                  20665820.9304
        24.7504         26.2504
  20603512.2734     -49962.53347    -19176.81247                  20603517.8284
        23.2504         27.2504
  22607985.2034    -897210.13046   -610685.32646                  22607993.1174
        18.5004         19.7504
  23533196.1254    1574508.62145    721752.60746                  23533204.6604
        10.7504         12.5004
 02  7  8 16 57 45.0000000  0  9G26G29G 6G23G15G17G18G21G22
  22380747.2974    1307772.64946    981294.14846                  22380754.1294
        18.5004         18.5004
  23294680.2034    1619997.14446   1211293.86346                  23294686.3794
        14.7504         14.2504
  22012539.3364    2576577.30747   1919670.91146                  22012546.2424
        21.7504         22.0004
  22710960.9064    2497016.16247   1860149.12646                  22710968.0474
        20.5004         20.7504
  20539059.4614     346614.89648    272958.36447                  20539065.5204
        28.0004         27.7504
  20669877.9774     731329.72647    557235.41447                  20669884.2934
        24.5004         26.5004
  20604691.8834     -43761.05847    -14344.49147                  20604697.4844
        23.5004         27.2504
  22605387.5234    -910861.13646   -621322.43946                  22605395.3554
        18.5004         19.7504
  23541117.9224    1616140.41845    754192.91346                  23541126.7854
        11.0004         12.5004
 02  7  8 16 58  0.0000000  0  9G26G29G 6G23G15G17G18G21G22
  22387696.4064    1344288.51546   1009748.08646                  22387703.4534
        19.2504         18.7504
  23302736.6024    1662334.75746   1244284.20546                  23302742.9534
        14.2504         14.2504
  22024344.4534    2638613.44047   1968010.72546                  22024351.5594
        21.7504         22.0004
  22722169.2894    2555914.12147   1906043.62646                  22722176.6174
        21.0004         20.5004
  20541628.5634     360115.33847    283478.19047                  20541634.7624
        27.7504         27.5004
  20673977.0314     752869.24547    574019.45347                  20673983.2894
        24.7504         26.2504
  20605918.0864     -37318.02347     -9323.94047                  20605923.7814
        23.2504         27.2504
  22602827.2344    -924315.02946   -631805.95946                  22602835.5594
        18.7504         20.0004
  23549084.9224    1658006.69745    786815.96346                  23549093.9614
        11.2504         12.2504
 02  7  8 16 58 15.0000000  0  9G26G29G 6G23G15G17G18G21G22
  22394698.3754    1381084.53846   1038420.31046                  22394705.7034
        18.5004         18.7504
  23310840.3204    1704920.26246   1277467.70346                  23310846.3204
        14.2504         13.7504
  22036189.8524    2700860.70147   2016515.04346                  22036197.1094
        22.0004         22.0004
  22733408.2424    2614975.52047   1952065.48546                  22733415.6644
        20.7504         20.7504
  20544233.4144     373805.15247    294145.57447                  20544239.6134
        27.7504         27.7504
  20678110.4304     774590.60747    590945.18647                  20678116.8164
        24.5004         26.7504
  20607189.3444     -30637.92047     -4118.66047                  20607195.0394
        23.5004         27.5004
  22600303.8054    -937576.27246   -642139.35846                  22600311.9184
        19.0004         20.0004
  23557095.9774    1700102.76645    819618.05146                  23557104.2194
        11.0004         12.2504
 02  7  8 16 58 30.0000000  0  9G26G29G 6G23G15G17G18G21G22
  22401753.5084    1418159.24946   1067309.68146                  22401760.4964
        18.7504         19.0004
  23318991.0704    1747752.13546   1310843.17246                  23318997.8554
        14.2504         14.0004
  22048075.1024    2763317.40047   2065182.56246                  22048082.1844
        21.5004         22.0004
  22744677.8914    2674198.70547   1998213.40346                  22744685.1134
        21.0004         20.5004
  20546874.2584     387682.92747    304959.42147                  20546880.5274
        27.5004         27.7504
  20682278.1804     796492.29547    608011.43047                  20682284.6484
        24.5004         26.5004
  20608505.2814     -23722.31447      1270.12047                  20608510.8834
        23.7504         27.5004
  22597816.8284    -950646.31946   -652323.78346                  22597824.6724
        19.0004         20.0004
  23565149.8914    1742426.79645    852597.76346                  23565157.6414
        10.7504         12.0004
 02  7  8 16 58 45.0000000  0  9G26G29G 6G23G15G17G18G21G22
  22408862.2034    1455515.37746   1096418.35746                  22408869.3204
        18.7504         18.7504
  23327189.2114    1790833.21246   1344412.84346                  23327195.6564
        14.2504         14.2504
  22060000.7974    2825986.31547   2114015.45046                  22060007.6564
        21.7504         21.5004
  22755978.8834    2733586.47047   2044489.57146                  22755986.1054
        21.0004         20.5004
  20549551.3834     401751.75547    315922.14347                  20549557.5124
        27.7504         27.7504
  20686480.7344     818577.37747    625220.58147                  20686487.0514
        24.5004         26.2504
  20609866.4304     -16568.15747      6844.79147                  20609871.9264
        23.7504         27.5004
  22595366.4924    -963522.05746   -662356.79546                  22595374.3954
        18.7504         20.0004
  23573247.6094    1784981.58245    885757.27746                  23573255.5354
        10.7504         12.0004
 02  7  8 16 59  0.0000000  0  9G26G29G 6G23G15G17G18G21G22
  22416023.3134    1493148.90746   1125743.19146                  22416030.5004
        19.5004         18.5004
  23335433.5394    1834159.26346   1378173.38446                  23335440.0434
        14.0004         13.7504
  22071965.8284    2888863.28747   2163010.45546                  22071972.9924
        21.7504         21.7504
  22767310.7974    2793134.51147   2090890.62846                  22767318.0784
        21.0004         20.5004
  20552264.3594     416007.64247    327030.62947                  20552270.4884
        27.2504         27.7504
  20690717.7504     840841.96347    642569.60547                  20690723.9964
        24.2504         26.2504
  20611272.6724      -9179.41147     12602.25947                  20611278.3444
        23.2504         27.5004
  22592952.4534    -976207.22746   -672241.31246                  22592960.4614
        19.2504         20.0004
  23581388.0314    1827762.87145    919093.32146                  23581396.4384
        10.5004         12.0004
 02  7  8 16 59 15.0000000  0  9G26G29G 6G23G15G17G18G21G22
  22423236.8054    1531055.10946   1155280.48246                  22423243.8524
        19.2504         18.7504
  23343724.2894    1877725.62046   1412121.18546                  23343730.3594
        14.0004         14.0004
  22083969.5784    2951943.50147   2212163.82746                  22083976.9184
        21.7504         22.0004
  22778671.8204    2852838.01347   2137412.82846                  22778678.7624
        21.0004         20.5004
  20555011.7504     430446.06947    338281.35247                  20555018.1134
        27.2504         27.7504
  20694987.7274     863281.52247    660054.97147                  20694994.1954
        24.5004         26.5004
  20612722.2734      -1560.71847     18538.90447                  20612728.1564
        23.2504         27.2504
  22590574.0784    -988706.21746   -681980.75846                  22590582.3554
        19.0004         20.0004
  23589571.7114    1870765.80745    952602.06445                  23589580.2114
        10.5004         11.2504
 02  7  8 16 59 30.0000000  0  9G26G29G 6G23G15G17G18G21G22
  22430501.0864    1569230.44346   1185027.48846                  22430508.1804
        19.5004         19.0004
  23352059.6644    1921528.74346   1446253.47446                  23352066.0164
        14.0004         14.0004
  22096011.4224    3015223.43747   2261472.82546                  22096018.6564
        21.7504         21.7504
  22790061.9534    2912693.40447   2184053.38346                  22790069.0234
        21.0004         20.5004
  20557793.5554     445063.73447    349671.73347                  20557799.9774
        27.7504         27.7504
  20699290.3984     885892.71847    677674.08147                  20699296.7384
        24.2504         26.5004
  20614215.0944       6284.51347     24652.07647                  20614220.9534
        23.2504         27.2504
  22588230.5394   -1001022.45646   -691577.79646                  22588238.3244
        18.5004         19.5004
  23597796.2584    1913986.72245    986280.66845                  23597804.0904
        10.2504         11.7504
 02  7  8 16 59 45.0000000  0  9G26G29G 6G23G15G17G18G21G22
  22437817.4844    1607675.96446   1214985.03546                  22437824.8014
        19.5004         18.5004
  23360440.2584    1965569.43846   1480570.88146                  23360446.5864
        14.0004         14.0004
  22108091.2584    3078704.01247   2310938.18046                  22108098.5634
        21.2504         21.7504
  22801481.0704    2972701.60347   2230813.00146                  22801488.1174
        21.0004         20.0004
  20560609.4454     459861.85047    361202.73447                  20560615.7384
        27.5004         27.7504
  20703626.1414     908676.76447    695427.87547                  20703632.7384
        24.2504         26.5004
  20615751.4144      14357.51747     30942.73447                  20615757.1564
        23.5004         27.2504
  22585921.5004   -1013154.91046   -701031.62746                  22585929.5904
        18.5004         19.7504
  23606062.7424    1957426.54745   1020129.83945                  23606072.4144
        10.0004         11.0004
 02  7  8 17  0  0.0000000  0  9G26G29G 6G23G15G17G18G21G22
  22445183.4614    1646385.54446   1245148.33546                  22445190.0824
        19.2504         18.5004
  23368864.8594    2009841.83746   1515068.84646                  23368871.2934
        13.5004         13.7504
  22120208.1564    3142379.01147   2360555.01746                  22120215.6024
        21.2504         21.5004
  22812928.2894    3032856.39147   2277686.84446                  22812935.5594
        20.7504         20.5004
  20563458.8594     474834.54048    372869.76247                  20563465.0234
        28.0004         27.7504
  20707993.3284     931627.77947    713311.78547                  20707999.6684
        24.2504         26.5004
  20617329.7974      22652.29447     37406.19947                  20617335.6334
        23.0004         27.2504
  22583646.6174   -1025109.60446   -710346.94046                  22583654.7074
        18.7504         20.0004
  23614369.1414    2001078.98345   1054144.68945                  23614377.2424
        10.0004         11.2504
 02  7  8 17  0 15.0000000  0  9G26G29G 6G23G15G17G18G21G22
  22452601.0634    1685364.45746   1275521.51146                  22452607.9574
        18.5004         18.5004
  23377334.8444    2054350.98646   1549751.27846                  23377341.4534
        14.0004         14.0004
  22132363.0554    3206253.68147   2410327.45346                  22132370.3834
        21.0004         21.5004
  22824404.2584    3093162.91447   2324678.93046                  22824411.4104
        20.2504         20.5004
  20566342.0944     489987.25948    384677.07547                  20566348.0704
        28.0004         27.7504
  20712393.6954     954751.29347    731330.10647                  20712400.0944
        24.2504         26.5004
  20618951.7894      31174.24147     44046.68447                  20618957.6254
        23.0004         27.2504
  22581406.3834   -1036881.04046   -719519.45746                  22581414.4144
        19.2504         20.0004
  23622717.3984    2044949.10845   1088329.14845                  23622725.8874
         9.7504         11.2504
 02  7  8 17  0 30.0000000  0  9G26G29G 6G23G15G17G18G21G22
  22460068.8364    1724607.94846   1306100.85146                  22460076.3404
        19.0004         18.5004
  23385848.7814    2099091.97346   1584614.36146                  23385855.5554
        13.2504         14.0004
  22144554.9534    3270323.08947   2460251.61746                  22144562.3164
        21.0004         21.5004
  22835908.1724    3153616.27247   2371785.43046                  22835915.3134
        20.5004         20.0004
  20569258.8674     505315.40948    396621.08547                  20569264.8674
        28.0004         27.7504
  20716826.1484     978042.65547    749479.21247                  20716832.5234
        24.5004         26.5004
  20620615.6024      39918.63947     50860.50747                  20620621.5204
        22.7504         27.2504
  22579200.5314   -1048473.55446   -728552.55746                  22579208.4344
        19.5004         20.0004
  23631106.1174    2089032.00145   1122679.42045                  23631114.5594
        10.0004         11.2504
 02  7  8 17  0 45.0000000  0  9G26G29G 6G23G15G17G18G21G22
  22467585.1804    1764106.74546   1336879.13146                  22467591.6374
        19.0004         18.0004
  23394405.4774    2144055.84146   1619651.13746                  23394413.0394
        13.5004         14.0004
  22156782.4614    3334578.01747   2510320.35246                  22156789.8954
        20.5004         21.5004
  22847437.9774    3214207.23347   2418999.14746                  22847445.2584
        20.5004         20.2504
  20572207.4304     520810.10548    408694.86947                  20572213.6524
        28.0004         27.7504
  20721288.4144    1001492.80247    767752.05147                  20721294.8244
        24.5004         26.5004
  20622320.1174      48876.36247     57840.55647                  20622326.1174
        22.7504         27.0004
  22577026.9534   -1059896.25546   -737453.34046                  22577034.9614
        19.5004         19.7504
  23639534.1024    2133318.41645   1157188.27645                  23639542.6954
        10.7504         11.5004
 02  7  8 17  1  0.0000000  0  9G26G29G 6G23G15G17G18G21G22
  22475152.0474    1803871.32746   1367864.51446                  22475158.4804
        19.5004         18.2504
  23403005.9384    2189252.70946   1654869.45846                  23403013.3134
        13.2504         13.5004
  22169047.2664    3399028.80347   2560541.69646                  22169054.5124
        20.5004         21.5004
  22858996.6094    3274946.12347   2466328.14346                  22859003.9144
        21.0004         20.0004
  20575189.7034     536481.73947    420906.53047                  20575196.1254
        27.7504         27.7504
  20725782.8524    1025112.41947    786156.94647                  20725789.2274
        24.5004         26.5004
  20624067.5084      58058.03147     64995.10647                  20624073.3914
        23.0004         27.2504
  22574887.4534   -1071138.47546   -746213.47846                  22574895.2854
        19.5004         20.2504
  23648002.6334    2177818.50545   1191863.63745                  23648011.0634
        11.0004         11.7504
 02  7  8 17  1 15.0000000  0  9G26G29G 6G23G15G17G18G21G22
  22482767.5784    1843890.84346   1399048.54146                  22482773.9534
        19.2504         18.2504
  23411649.1414    2234671.98146   1690261.08246                  23411656.2934
        14.0004         14.0004
  22181346.9924    3463664.57247   2610907.18446                  22181354.4024
        20.7504         21.2504
  22870580.7504    3335822.05047   2513763.91846                  22870587.9964
        20.2504         20.0004
  20578203.5864     552319.76047    433247.84747                  20578209.9494
        27.7504         27.7504
  20730308.0164    1048890.96347    804685.67847                  20730314.1914
        24.5004         26.5004
  20625855.1884      67452.87647     72315.76647                  20625861.0354
        23.2504         27.2504
  22572780.4614   -1082210.85346   -754841.27046                  22572788.2934
        19.7504         20.0004
  23656508.5784    2222521.40045   1226697.03446                  23656517.5474
        11.0004         12.0004
 02  7  8 17  1 30.0000000  0  9G26G29G 6G23G15G17G18G21G22
  22490431.5784    1884165.63746   1430431.48846                  22490438.1414
        19.2504         18.0004
  23420334.1024    2280313.85246   1725826.16046                  23420340.9734
        13.7504         13.7504
  22193681.9694    3528485.58347   2661417.02446                  22193689.2274
        20.5004         21.2504
  22882190.8754    3396835.27147   2561306.66646                  22882198.2854
        20.5004         20.0004
  20581249.5004     568324.73648    445719.25747                  20581255.6294
        28.2504         27.7504
  20734863.3054    1072828.90247    823338.61247                  20734869.8094
        24.5004         26.5004
  20627683.6094      77061.41147     79802.94247                  20627689.3984
        23.0004         27.2504
  22570705.9614   -1093112.73347   -763336.21246                  22570713.8524
        20.0004         20.5004
  23665054.2894    2267427.24445   1261688.54645                  23665063.1414
        11.0004         11.7504
 02  7  8 17  1 45.0000000  0  9G26G29G 6G23G15G17G18G21G22
  22498144.2584    1924696.37446   1462013.86546                  22498150.5634
        19.5004         18.2504
  23429061.8134    2326178.94446   1761565.19146                  23429068.2934
        13.5004         14.0004
  22206052.5864    3593492.46947   2712071.69546                  22206059.6334
        20.5004         21.0004
  22893827.8984    3457986.33747   2608956.83446                  22893835.1914
        20.0004         19.7504
  20584326.9064     584497.57247    458321.46147                  20584333.1174
        27.7504         27.7504
  20739449.0084    1096927.04447    842116.37947                  20739455.3244
        24.5004         26.2504
  20629552.9534      86884.38947     87457.21547                  20629558.7304
        23.0004         27.0004
  22568663.9224   -1103843.32647   -771697.68946                  22568671.7544
        20.2504         20.7504
  23673638.3284    2312536.54445   1296838.62746                  23673648.2114
        11.0004         12.0004
 02  7  8 17  2  0.0000000  0  9G26G29G 6G23G15G17G18G21G22
  22505905.7034    1965482.74546   1493795.44046                  22505912.0664
        18.7504         18.2504
  23437832.7814    2372267.00446   1797477.94746                  23437839.0164
        13.7504         14.0004
  22218458.4224    3658684.80047   2762870.87646                  22218465.4104
        20.7504         21.0004
  22905490.7894    3519274.83446   2656714.08846                  22905497.8134
        19.7504         19.7504
  20587436.3984     600838.08947    471054.33347                  20587442.6684
        27.5004         27.7504
  20744065.3204    1121185.34147    861018.94347                  20744071.7304
        24.7504         26.5004
  20631462.9064      96921.56547     95278.40047                  20631468.7664
        23.0004         27.0004
  22566654.4924   -1114402.70647   -779925.75446                  22566662.1604
        20.0004         20.7504
  23682260.8444    2357848.88345   1332146.91046                  23682269.4964
        11.0004         12.2504
 02  7  8 17  2 15.0000000  0  9G26G29G 6G23G15G17G18G21G22
  22513715.0164    2006520.13246   1525772.61346                  22513721.5784
        19.2504         18.0004
  23446644.0234    2418573.14246   1833560.62246                  23446650.3164
        14.0004         13.7504
  22230898.2114    3724057.91547   2813810.92046                  22230905.4694
        20.5004         21.2504
  22917178.5394    3580696.15346   2704574.84346                  22917185.6214
        19.5004         19.5004
  20590576.9454     617342.00147    483914.52847                  20590583.3554
        27.2504         27.7504
  20748711.0554    1145599.35247    880042.84047                  20748717.2894
        24.5004         26.5004
  20633412.6804     107168.55747    103263.07047                  20633418.2814
        23.0004         27.2504
  22564676.6414   -1124795.32547   -788023.86346                  22564684.3554
        20.0004         20.7504
  23690921.1174    2403359.49545   1367609.67646                  23690930.1214
        11.0004         12.2504
 02  7  8 17  2 30.0000000  0  9G26G29G 6G23G15G17G18G21G22
  22521571.6334    2047807.49746   1557944.58046                  22521578.0664
        19.2504         18.0004
  23455497.4304    2465096.40446   1869812.50446                  23455503.3834
        13.5004         14.0004
  22243372.3594    3789610.72347   2864890.98446                  22243379.6994
        20.2504         20.7504
  22928891.6644    3642249.10346   2752538.16346                  22928898.8874
        19.5004         19.5004
  20593748.3364     634008.40347    496901.33647                  20593754.8164
        27.7504         27.5004
  20753386.3284    1170168.28147    899187.45847                  20753392.6684
        24.5004         26.2504
  20635402.2974     117624.42847    111410.50947                  20635408.2274
        22.7504         27.0004
  22562730.8364   -1135022.00247   -795992.67646                  22562738.4104
        20.0004         20.7504
  23699619.1644    2449067.09345   1403225.93645                  23699627.8284
        10.7504         11.7504
 02  7  8 17  2 45.0000000  0  9G26G29G 6G23G15G17G18G21G22
  22529476.3834    2089345.90046   1590312.15446                  22529482.6054
        19.0004         18.0004
  23464392.0234    2511837.99046   1906234.50846                  23464398.4694
        14.0004         13.7504
  22255881.3204    3855344.27447   2916111.88946                  22255888.7544
        20.0004         20.7504
  22940630.1564    3703934.70646   2800604.85246                  22940637.6374
        19.7504         19.7504
  20596951.1564     650838.62547    510015.79147                  20596957.6254
        27.7504         27.5004
  20758091.5704    1194893.54547    918453.89347                  20758097.8284
        24.7504         26.5004
  20637432.0864     128290.30347    119721.58147                  20637438.0164
        22.7504         27.0004
  22560816.5864   -1145081.15947   -803830.95246                  22560824.3714
        20.5004         20.7504
  23708354.4844    2494972.84045   1438996.62246                  23708362.9734
        10.7504         12.2504
 02  7  8 17  3  0.0000000  0  9G26G29G 6G23G15G17G18G21G22
  22537427.7274    2131131.26646   1622872.16746                  22537434.3484
        19.2504         18.0004
  23473327.4454    2558793.57046   1942823.25846                  23473334.6804
        13.5004         14.2504
  22268423.4614    3921254.36746   2967470.36346                  22268430.9654
        19.5004         20.7504
  22952393.2344    3765748.82046   2848771.67446                  22952400.2814
        19.5004         19.5004
  20600184.3524     667828.75747    523254.85647                  20600190.4574
        27.5004         27.7504
  20762825.5784    1219771.09447    937838.99047                  20762831.8834
        24.5004         26.5004
  20639501.0004     139162.34747    128193.31047                  20639506.8244
        23.0004         27.0004
  22558933.5634   -1154976.95847   -811541.93846                  22558941.6054
        21.0004         21.0004
  23717127.2974    2541072.41645   1474918.32745                  23717135.8914
        10.7504         11.7504
 02  7  8 17  3 15.0000000  0  9G26G29G 6G23G15G17G18G21G22
  22545426.4064    2173164.49046   1655625.30846                  22545432.6644
        19.7504         18.0004
  23482303.6174    2605964.17146   1979579.55346                  23482310.3674
        13.7504         13.7504
  22280999.5004    3987341.84346   3018967.05346                  22281006.9804
        19.7504         20.7504
  22964180.2114    3827692.23946   2897039.25946                  22964187.3404
        19.5004         19.5004
  20603448.0634     684979.98647    536619.45047                  20603454.3204
        27.2504         27.5004
  20767588.7344    1244802.14447    957343.69747                  20767595.0744
        24.7504         26.5004
  20641609.2894     150241.53547    136826.44547                  20641614.9614
        23.0004         27.2504
  22557081.5864   -1164708.24947   -819124.74246                  22557089.1374
        21.2504         21.2504
  23725936.3284    2587366.60745   1510991.67745                  23725945.0634
        10.7504         11.7504
 02  7  8 17  3 30.0000000  0  9G26G29G 6G23G15G17G18G21G22
  22553471.2344    2215440.76646   1688567.84446                  22553477.4104
        19.2504         17.7504
  23491320.0234    2653344.84446   2016499.55246                  23491327.6334
        13.2504         13.7504
  22293608.1954    4053601.84546   3070598.17246                  22293615.7704
        19.2504         20.5004
  22975991.6254    3889760.12046   2945403.82246                  22975998.5314
        18.7504         19.2504
  20606741.4924     702287.73347    550106.00747                  20606747.4924
        27.7504         27.5004
  20772380.1804    1269982.07447    976964.42047                  20772386.4734
        24.7504         26.2504
  20643756.2034     161523.22747    145617.37547                  20643762.1914
        23.0004         27.0004
  22555260.3914   -1174279.46647   -826582.80746                  22555267.6134
        21.2504         21.2504
  23734782.2894    2633850.45345   1547212.84245                  23734791.2464
         9.7504         11.2504
 02  7  8 17  3 45.0000000  0  9G26G29G 6G23G15G17G18G21G22
  22561562.8914    2257961.98846   1721701.26446                  22561569.0434
        19.5004         17.7504
  23500376.2974    2700937.48946   2053584.71346                  23500383.3444
        13.2504         14.0004
  22306250.6644    4120036.22246   3122365.17146                  22306258.1334
        19.7504         20.5004
  22987827.0634    3951954.29946   2993866.80146                  22987833.9224
        18.5004         18.7504
  20610065.1564     719754.08747    563716.15047                  20610071.1214
        27.7504         27.5004
  20777200.7344    1295313.05447    996702.83947                  20777206.8874
        24.5004         26.5004
  20645941.9454     173009.43347    154567.67247                  20645947.7114
        22.7504         27.0004
  22553469.8444   -1183688.57247   -833914.56146                  22553477.3834
        21.2504         21.5004
  23743664.1884    2680525.73245   1583583.15045                  23743672.8874
        10.0004         11.0004
 02  7  8 17  4  0.0000000  0  9G26G29G 6G23G15G17G18G21G22
  22569700.4454    2300725.29846   1755023.30346                  22569706.6914
        18.7504         17.5004
  23509472.8834    2748739.23746   2090832.81646                  23509480.4804
        13.5004         13.7504
  22318925.3594    4186641.95546   3174265.69446                  22318932.6644
        19.5004         20.5004
  22999685.5474    4014271.75346   3042425.83946                  22999692.3674
        18.5004         18.7504
  20613418.6334     737376.26448    577447.71747                  20613424.7034
        28.2504         27.5004
  20782049.2034    1320792.30847   1016556.79647                  20782055.3674
        24.7504         26.5004
  20648165.9844     184697.27547    163675.09247                  20648171.9384
        22.7504         26.7504
  22551709.7424   -1192938.47947   -841122.25446                  22551717.5864
        21.5004         21.5004
  23752582.0634    2727389.25345   1620100.14245                  23752591.7704
        10.0004         10.7504
 02  7  8 17  4 15.0000000  0  9G26G29G 6G23G15G17G18G21G22
  22577884.3204    2343732.75846   1788535.60146                  22577890.7194
        18.2504         17.5004
  23518609.4534    2796752.09046   2128245.41346                  23518616.6054
        13.2504         14.0004
  22331632.8984    4253421.11846   3226301.36746                  22331640.3204
        19.7504         20.5004
  23011567.6644    4076714.52846   3091082.53546                  23011574.8754
        18.5004         18.5004
  20616802.2194     755156.61348    591302.53247                  20616808.3954
        28.0004         27.5004
  20786926.4774    1346422.24547   1036528.17847                  20786932.6524
        24.7504         26.5004
  20650428.7344     196589.08547    172941.44047                  20650434.5354
        23.0004         27.0004
  22549980.1724   -1202026.74047   -848203.99946                  22549987.5234
        21.5004         21.2504
  23761536.2194    2774443.10045   1656765.41645                  23761544.7544
        10.2504         11.2504
 02  7  8 17  4 30.0000000  0  9G26G29G 6G23G15G17G18G21G22
  22586114.3444    2386981.44946   1822235.87346                  22586121.0944
        18.0004         17.7504
  23527785.5944    2844973.11146   2165820.21346                  23527792.3554
        13.5004         14.2504
  22344372.8594    4320370.75546   3278469.86746                  22344380.3754
        19.7504         20.2504
  23023473.7894    4139279.67646   3139834.58146                  23023480.5634
        18.7504         18.5004
  20620215.2274     773092.49348    605278.54247                  20620221.3794
        28.0004         27.7504
  20791831.8524    1372200.02947   1056614.75947                  20791837.9454
        25.0004         26.5004
  20652730.1804     208682.05447    182364.53447                  20652735.8874
        23.0004         27.0004
  22548281.0554   -1210955.90247   -855161.76846                  22548288.6294
        21.2504         21.5004
  23770525.8914    2821684.18345   1693576.63145                  23770533.6764
        10.5004         11.5004
 02  7  8 17  4 45.0000000  0  9G26G29G 6G23G15G17G18G21G22
  22594389.4384    2430466.25746   1856120.13246                  22594395.8244
        18.5004         17.5004
  23537000.0784    2893397.27746   2203553.31646                  23537007.6644
        13.7504         14.0004
  22357144.7894    4387485.87646   3330767.31946                  22357152.3634
        19.5004         20.2504
  23035401.6724    4201962.17046   3188678.06446                  23035408.4224
        18.7504         18.5004
  20623657.1024     791179.17848    619372.06647                  20623663.2894
        28.0004         27.7504
  20796764.3594    1398121.06547   1076812.96247                  20796770.5594
        24.5004         26.7504
  20655068.6564     220971.28747    191940.56347                  20655074.3634
        23.0004         27.0004
  22546611.2034   -1219730.91747   -861999.41546                  22546618.6724
        21.0004         21.2504
  23779550.5234    2869107.48045   1730529.75946                  23779559.7854
        11.0004         12.0004
 02  7  8 17  5  0.0000000  0  9G26G29G 6G23G15G17G18G21G22
  22602708.4224    2474184.05346   1890185.92946                  22602714.9384
        18.5004         17.5004
  23546253.1644    2942021.28946   2241442.13846                  23546260.2814
        13.7504         14.2504
  22369947.0394    4454763.01146   3383191.01146                  22369954.4614
        19.2504         20.5004
  23047351.4694    4264758.56246   3237610.30046                  23047358.7854
        18.2504         18.7504
  20627126.9694     809413.59148    633580.69647                  20627133.0514
        28.5004         28.0004
  20801723.7424    1424182.19747   1097120.33947                  20801729.9884
        24.5004         26.5004
  20657444.0164     233453.65047    201667.08647                  20657449.6414
        23.0004         27.2504
  22544970.2114   -1228354.85347   -868719.34046                  22544977.7734
        21.0004         21.2504
  23788609.0234    2916709.46545   1767622.19246                  23788617.1954
        11.0004         12.0004
 02  7  8 17  5 15.0000000  0  9G26G29G 6G23G15G17G18G21G22
  22611072.2814    2518137.09146   1924435.04246                  22611078.9964
        18.2504         17.2504
  23555544.4454    2990847.50646   2279488.53046                  23555551.6564
        14.0004         14.2504
  22382780.8054    4522204.52246   3435742.78746                  22382788.5314
        19.2504         20.2504
  23059323.4694    4327671.17046   3286633.09746                  23059330.5514
        18.5004         18.7504
  20630625.4534     827798.24348    647906.40247                  20630631.6524
        28.5004         28.0004
  20806710.1414    1450386.03747   1117538.91047                  20806716.4924
        24.5004         26.7504
  20659856.6024     246131.59047    211546.00347                  20659862.1334
        23.0004         27.0004
  22543358.2424   -1236825.16747   -875319.56346                  22543365.7814
        21.0004         21.2504
  23797701.6564    2964492.42745   1804855.62046                  23797710.4024
        11.0004         12.0004
 02  7  8 17  5 30.0000000  0  9G26G29G 6G23G15G17G18G21G22
  22619481.2664    2562326.06046   1958867.99446                  22619487.7704
        18.5004         17.5004
  23564874.8284    3039876.49446   2317692.92246                  23564882.5664
        14.0004         14.2504
  22395646.1094    4589810.97646   3488423.09446                  22395653.6254
        19.0004         20.5004
  23071317.4694    4390700.63946   3335746.95146                  23071324.4454
        18.2504         18.5004
  20634152.7664     846334.10248    662349.92647                  20634158.9534
        28.2504         28.0004
  20811723.8364    1476733.46947   1138069.37147                  20811730.1174
        24.2504         26.5004
  20662306.5634     259005.94847    221577.97347                  20662312.1764
        23.2504         27.0004
  22541775.5784   -1245140.86047   -881799.30146                  22541783.1054
        20.5004         21.2504
  23806828.9454    3012456.80545   1842230.39345                  23806837.6454
        11.0004         11.5004
 02  7  8 17  5 45.0000000  0  9G26G29G 6G23G15G17G18G21G22
  22627934.6254    2606749.93746   1993483.99646                  22627940.9064
        18.2504         17.5004
  23574242.9064    3089107.31746   2356054.59046                  23574250.3754
        14.0004         14.0004
  22408542.2894    4657581.28446   3541231.07646                  22408549.8754
        19.5004         20.0004
  23083333.5394    4453845.87646   3384951.01146                  23083340.8094
        17.7504         18.5004
  20637708.7734     865020.30948    676910.60447                  20637714.8674
        28.2504         27.7504
  20816764.7344    1503223.69347   1158711.10247                  20816771.2504
        24.5004         26.5004
  20664793.6954     272075.74747    231762.23147                  20664799.3444
        23.0004         27.0004
  22540222.4614   -1253302.57847   -888159.04946                  22540230.1414
        20.5004         21.2504
  23815990.8524    3060601.60945   1879745.77745                  23815999.9024
        10.7504         11.5004
 02  7  8 17  6  0.0010000  0  9G26G29G 6G23G15G17G18G21G22
  22636433.5054    2651410.92346   2028284.75246                  22636439.8804
        18.2504         17.2504
  23583650.1224    3138542.32146   2394575.35746                  23583657.2634
        14.0004         14.2504
  22421470.2714    4725519.24446   3594169.69746                  22421477.8214
        19.0004         20.0004
  23095372.6534    4517110.32346   3434247.96046                  23095379.6774
        17.7504         18.0004
  20641293.2474     883857.66448    691589.06247                  20641299.4234
        28.2504         28.0004
  20821833.3724    1529858.01447   1179465.11447                  20821839.7824
        24.5004         26.5004
  20667317.9894     285341.32347    242099.04147                  20667323.6144
        23.0004         27.0004
  22538698.5444   -1261311.52647   -894399.76946                  22538706.0134
        21.0004         21.5004
  23825186.7394    3108929.00445   1917403.43446                  23825195.1694
        10.7504         12.0004
 02  7  8 17  6 15.0010000  0  9G26G29G 6G23G15G17G18G21G22
  22644975.2244    2696297.66746   2063261.41746                  22644981.4354
        18.0004         17.2504
  23593093.6774    3188169.51746   2433245.89446                  23593100.7354
        14.2504         14.0004
  22434428.1384    4793610.27046   3647227.59146                  22434435.5134
        19.5004         20.0004
  23107431.6144    4580480.02946   3483626.93946                  23107438.1774
        17.7504         18.2504
  20644905.2084     902838.40548    706379.24747                  20644911.4074
        28.2504         27.7504
  20826927.0134    1556627.69347   1200324.59947                  20826933.5174
        24.2504         26.5004
  20669878.2004     298795.60147    252582.90247                  20669884.1304
        22.7504         26.7504
  22537202.7084   -1269171.71847   -900524.57046                  22537210.2124
        21.2504         21.5004
  23834416.2714    3157427.06945   1955194.07745                  23834424.8644
        10.7504         11.5004
 02  7  8 17  6 30.0010000  0  9G26G29G 6G23G15G17G18G21G22
  22653560.3104    2741412.67046   2098415.94946                  22653566.9074
        17.7504         17.0004
  23602574.4114    3237991.85946   2472068.48646                  23602581.1964
        13.7504         14.0004
  22447414.9744    4861858.32746   3700407.84946                  22447422.7714
        19.0004         20.0004
  23119510.9274    4643958.69146   3533090.81446                  23119517.7594
        18.0004         18.2504
  20648544.4814     921963.52248    721281.93447                  20648550.7044
        28.2504         28.0004
  20832047.3564    1583534.17047   1221290.68047                  20832053.7434
        24.2504         26.5004
  20672474.2554     312439.11347    263214.20747                  20672480.1384
        22.7504         27.0004
  22535734.9814   -1276884.13947   -906534.21946                  22535742.3924
        21.2504         21.5004
  23843678.5284    3206098.47545   1993119.78946                  23843687.1694
        11.0004         12.0004
 02  7  8 17  6 45.0010000  0  9G26G29G 6G23G15G17G18G21G22
  22662189.3334    2786758.44046   2133750.30446                  22662195.8844
        17.5004         17.0004
  23612093.2314    3288011.69346   2511044.96446                  23612099.8174
        13.5004         14.2504
  22460432.8104    4930265.96246   3753712.44446                  22460440.6184
        19.2504         20.2504
  23131611.7714    4707548.82946   3582641.55046                  23131618.7124
        18.0004         18.2504
  20652211.8724     941235.84848    736299.33747                  20652218.2124
        28.2504         28.0004
  20837193.8104    1610580.30547   1242365.58947                  20837200.1964
        24.2504         26.5004
  20675107.2164     326274.48347    273995.01847                  20675112.9584
        22.7504         26.7504
  22534296.1854   -1284446.02047   -912426.57146                  22534303.9114
        21.2504         21.5004
  23852973.7784    3254945.46145   2031182.34146                  23852982.7714
        11.0004         12.2504
 02  7  8 17  7  0.0010000  0  9G26G29G 6G23G15G17G18G21G22
  22670862.7714    2832336.74846   2169265.87046                  22670868.9934
        17.2504         17.2504
  23621649.6384    3338230.87446   2550176.77846                  23621656.3884
        14.0004         14.5004
  22473480.8104    4998834.93646   3807142.76446                  22473488.5834
        19.5004         20.2504
  23143734.2244    4771252.26646   3632280.57146                  23143741.3294
        18.0004         18.0004
  20655907.7554     960657.43748    751433.03747                  20655914.0134
        28.5004         28.0004
  20842367.5674    1637768.21747   1263550.97047                  20842374.0364
        24.0004         26.5004
  20677776.8494     340303.80547    284926.95647                  20677782.6734
        22.7504         26.7504
  22532886.0054   -1291855.21147   -918199.94746                  22532893.4974
        21.2504         21.5004
  23862302.8104    3303969.85345   2069383.10446                  23862311.7904
        10.5004         12.0004
 02  7  8 17  7 15.0010000  0  9G26G29G 6G23G15G17G18G21G22
  22679578.5994    2878139.88146   2204956.60546                  22679584.9154
        17.7504         17.0004
  23631242.5284    3388641.60946   2589457.85246                  23631249.2434
        14.0004         14.0004
  22486558.3024    5067557.46246   3860692.72946                  22486565.9584
        19.5004         20.0004
  23155876.8804    4835061.13746   3682001.74746                  23155883.9384
        18.2504         18.0004
  20659630.5604     980220.79348    766677.20747                  20659636.7244
        28.5004         28.0004
  20847566.8964    1665090.29847   1284840.89847                  20847573.0604
        24.2504         26.5004
  20680482.2164     354519.37447    296004.01847                  20680488.2164
        22.2504         26.7504
  22531503.7944   -1299119.28747   -923860.24046                  22531511.2164
        21.2504         21.2504
  23871663.2164    3353163.75145   2107715.97045                  23871672.7474
         9.5004         11.5004
 02  7  8 17  7 30.0010000  0  8G26G29G 6G23G15G17G18G21
  22688338.2714    2924172.58446   2240826.22946                  22688344.8924
        18.0004         17.2504
  23640872.6224    3439248.71746   2628891.95546                  23640878.8104
        14.0004         14.2504
  22499665.7634    5136438.24246   3914366.01946                  22499673.4894
        18.7504         19.7504
  23168039.6774    4898980.16146   3731808.75746                  23168046.6064
        17.7504         18.0004
  20663381.1064     999930.84048    782035.68447                  20663387.3414
        28.0004         27.7504
  20852792.5914    1692551.55547   1306239.28047                  20852798.6734
        24.5004         26.2504
  20683223.3564     368926.11147    307230.05547                  20683229.3684
        22.0004         26.7504
  22530149.9504   -1306233.36847   -929403.65746                  22530157.7714
        21.2504         21.5004
 02  7  8 17  7 45.0010000  0  9G26G29G 6G23G15G17G18G21G 3
  22697140.5914    2970427.59746   2276869.09246                  22697147.3414
        18.0004         17.0004
  23650538.5674    3490044.73246   2668473.24846                  23650545.7314
        13.5004         14.0004
  22512802.4274    5205469.89446   3968156.86146                  22512810.1884
        18.7504         19.5004
  23180223.0674    4963002.07346   3781695.94646                  23180230.1854
        18.0004         18.2504
  20667158.5444    1019780.52248    797502.96647                  20667164.6144
        28.7504         28.0004
  20858043.3024    1720144.95947   1327740.63047                  20858049.5834
        24.2504         26.5004
  20686000.1854     383516.77147    318599.39947                  20686006.1734
        22.2504         26.7504
  22528823.6614   -1313204.04347   -934835.32146                  22528831.6464
        21.0004         21.7504
  23770295.6924     -11758.20355
        11.0004
 02  7  8 17  8  0.0010000  0  9G26G29G 6G23G15G17G18G21G 3
  22705985.5834    3016908.89546   2313088.27246                  22705992.1924
        18.5004         17.0004
  23660241.5994    3541033.68346   2708204.89246                  23660248.7044
        13.5004         14.2504
  22525968.3254    5274656.41846   4022068.39146                  22525976.0634
        18.7504         20.0004
  23192426.3414    5027130.73846   3831666.31746                  23192433.3414
        18.0004         18.2504
  20670963.3334    1039774.17348    813082.43447                  20670969.3214
        28.7504         27.7504
  20863320.2164    1747874.71847   1349348.23647                  20863326.6264
        24.2504         26.5004
  20688812.4034     398295.55547    330115.33147                  20688818.2634
        22.7504         27.0004
  22527525.0994   -1320027.32747   -940152.14546                  22527532.8024
        21.2504         21.7504
  23766119.0214     -33704.64845
        11.0004
 02  7  8 17  8 15.0010000  0  9G26G29G 6G23G15G17G18G21G 3
  22714872.6144    3063610.63046   2349479.22546                  22714879.1654
        17.5004         17.5004
  23669979.8724    3592209.80046   2748082.37246                  23669986.8254
        13.5004         13.7504
  22539162.1224    5343991.97246   4076096.04946                  22539169.8024
        18.5004         19.7504
  23204648.7784    5091360.38346   3881715.36646                  23204655.8604
        18.0004         17.7504
  20674794.3804    1059906.32248    828769.81747                  20674800.4154
        28.7504         27.7504
  20868621.9664    1775735.26447   1371057.74347                  20868628.4814
        24.2504         26.2504
  20691659.3964     413256.78847    341773.43347                  20691665.1144
        23.0004         27.0004
  22526253.6534   -1326708.83947   -945358.49446                  22526261.3334
        21.0004         21.7504
  23761967.7314     -55521.23345
        11.5004
 02  7  8 17  8 30.0010000  0  9G26G29G 6G23G15G17G18G21G 3
  22723803.3414    3110539.89846   2386047.46646                  22723809.9504
        17.7504         17.0004
  23679755.4584    3643580.13346   2788111.18746                  23679763.0094
        13.5004         13.7504
  22552385.9974    5413483.52346   4130245.25446                  22552393.8884
        18.0004         19.5004
  23216891.9664    5155697.96846   3931848.52846                  23216899.1184
        17.5004         17.7504
  20678653.0214    1080184.16548    844570.73047                  20678659.0914
        28.7504         27.7504
  20873950.0524    1803733.97647   1392874.92147                  20873956.6614
        23.7504         26.2504
  20694542.4114     428407.76647    353579.39047                  20694548.1424
        23.0004         27.2504
  22525010.4424   -1333241.37247   -950448.75246                  22525018.1574
        21.0004         21.7504
  23757842.1614     -77200.39045     -8996.18855                  23757850.4274
        11.2504         11.5004
 02  7  8 17  8 45.0010000  0  9G26G29G 6G23G15G17G18G21G 3
  22732774.8254    3157686.84746   2422785.34146                  22732781.6964
        17.5004         17.0004
  23689566.3494    3695134.74946   2828283.61446                  23689573.4074
        12.7504         13.7504
  22565637.8964    5483121.23346   4184508.33846                  22565645.6464
        18.2504         19.5004
  23229153.6854    5220133.70746   3982058.17746                  23229160.9194
        17.7504         17.7504
  20682537.7554    1100598.16248    860477.73747                  20682543.8374
        28.0004         28.0004
  20879302.2944    1831861.29747   1414792.31247                  20879308.9154
        24.0004         26.2504
  20697459.9194     443738.65447    365525.53747                  20697465.8604
        23.0004         27.2504
  22523793.9744   -1339634.61247   -955430.47946                  22523801.4784
        21.5004         22.0004
  23753740.7944     -98751.41445    -25789.15046                  23753748.7784
        11.7504         12.0004
 02  7  8 17  9  0.0010000  0  9G26G29G 6G23G15G17G18G21G 3
  22741789.7474    3205060.11746   2459699.56946                  22741796.6654
        17.5004         17.0004
  23699413.4894    3746882.25646   2868606.32946                  23699420.0994
        12.7504         13.5004
  22578918.7474    5552913.66746   4238892.00446                  22578926.0524
        18.5004         19.2504
  23241435.7314    5284676.17046   4032350.99046                  23241442.8844
        17.7504         18.0004
  20686449.8104    1121157.16548    876497.74047                  20686455.7394
        28.5004         27.7504
  20884681.1854    1860126.05647   1436816.79547                  20884687.6184
        24.5004         26.2504
  20700413.1144     459258.20647    377618.69447                  20700418.9274
        23.0004         27.0004
  22522605.6304   -1345879.41347   -960296.53246                  22522613.0404
        21.2504         22.0004
  23749666.2634    -120165.32446    -42475.31446                  23749673.3804
        12.2504         12.2504
 02  7  8 17  9 15.0010000  0  9G26G29G 6G23G15G17G18G21G 3
  22750846.4814    3252655.08146   2496786.54346                  22750853.6224
        18.0004         17.2504
  23709296.5284    3798818.11546   2909075.80446                  23709303.7284
        12.7504         14.0004
  22592228.5994    5622856.23146   4293392.64646                  22592236.1384
        18.5004         19.2504
  23253737.4504    5349320.74646   4082723.37146                  23253744.5674
        18.0004         17.7504
  20690389.0364    1141856.83948    892627.35547                  20690394.9784
        28.7504         27.5004
  20890084.9664    1888523.99147   1458945.04647                  20890091.2824
        24.5004         26.0004
  20703401.6144     474961.89847    389855.33447                  20703407.0994
        23.2504         27.2504
  22521444.3104   -1351980.24147   -965050.40846                  22521451.8964
        21.0004         21.7504
  23745616.4814    -141446.15746    -59057.75046                  23745622.9744
        12.2504         12.2504
 02  7  8 17  9 30.0010000  0  9G26G29G 6G23G15G17G18G21G 3
  22759945.5994    3300469.51246   2534044.53146                  22759952.5284
        17.7504         17.0004
  23719215.0914    3850940.06946   2949690.31946                  23719222.7714
        12.5004         13.7504
  22605566.4744    5692946.61846   4348008.48246                  22605574.3294
        18.2504         19.5004
  23266057.6304    5414065.17846   4133173.55746                  23266065.1104
        17.7504         18.0004
  20694354.2314    1162695.17848    908865.01747                  20694360.2674
        28.2504         27.7504
  20895513.8644    1917053.01047   1481175.44747                  20895520.0404
        24.2504         26.2504
  20706424.4354     490847.80047    402233.95747                  20706430.1304
        23.0004         27.2504
  22520310.5134   -1357939.11047   -969693.66046                  22520318.0404
        21.0004         22.0004
  23741591.7244    -162595.55546    -75537.77446                  23741599.1814
        12.0004         12.5004
 02  7  8 17  9 45.0010000  0  9G26G29G 6G23G15G17G18G21G 3
  22769086.8724    3348507.17146   2571476.46446                  22769093.4464
        18.7504         17.2504
  23729169.2634    3903251.86746   2990452.72846                  23729177.2714
        12.5004         12.7504
  22618933.0754    5763188.59446   4402742.42246                  22618940.8254
        18.2504         19.2504
  23278397.9894    5478913.15046   4183704.43046                  23278405.0244
        18.0004         18.2504
  20698346.8254    1183676.19848    925213.86047                  20698352.9074
        28.7504         28.0004
  20900968.5834    1945717.32047   1503511.26347                  20900974.8414
        24.2504         26.2504
  20709483.0364     506919.80847    414757.59947                  20709488.8134
        23.0004         27.0004
  22519204.6924   -1363751.94547   -974223.11346                  22519212.6774
        20.5004         22.0004
  23737593.2474    -183609.25946    -91912.07046                  23737601.1264
        12.2504         12.5004
 02  7  8 17 10  0.0010000  0  9G26G29G 6G23G15G17G18G21G 3
  22778270.3254    3396766.40946   2609081.04046                  22778276.8294
        18.7504         17.2504
  23739159.6144    3955751.76846   3031361.73946                  23739167.0484
        12.7504         13.5004
  22632328.0054    5833580.38646   4457593.11346                  22632336.0364
        18.0004         19.5004
  23290757.1694    5543862.98046   4234314.66246                  23290764.2634
        17.7504         18.0004
  20702366.2864    1204798.54848    941672.83347                  20702372.4624
        28.0004         27.7504
  20906448.7244    1974515.36147   1525951.28247                  20906455.0404
        24.2504         26.2504
  20712576.4814     523176.38747    427425.06347                  20712582.3174
        22.7504         26.7504
  22518125.5834   -1369420.27147   -978639.97246                  22518133.6734
        20.5004         22.0004
  23733619.8254    -204488.54846   -108181.62246                  23733628.7714
        12.2504         12.7504
 02  7  8 17 10 15.0010000  0  9G26G29G 6G23G15G17G18G21G 3
  22787496.0834    3445248.80346   2646859.52446                  22787502.5634
        18.7504         17.5004
  23749186.4894    4008441.48646   3072418.64546                  23749194.4034
        12.0004         13.5004
  22645752.1854    5904123.61046   4512561.79146                  22645760.1224
        18.0004         19.0004
  23303136.3884    5608916.33746   4285005.57646                  23303143.8684
        17.7504         18.0004
  20706413.0134    1226064.04248    958243.34747                  20706419.1774
        28.2504         27.7504
  20911954.4664    2003449.04747   1548497.01047                  20911960.9464
        24.0004         26.2504
  20715705.6464     539619.36247    440237.76847                  20715711.5284
        22.7504         27.0004
  22517074.7164   -1374942.27947   -982942.80946                  22517082.5364
        20.7504         22.0004
  23729672.6534    -225231.15246   -124344.66846                  23729679.8994
        12.5004         12.7504
 02  7  8 17 10 30.0010000  0  9G26G29G 6G23G15G17G18G21G 3
  22796764.7084    3493955.03146   2684812.40846                  22796771.1654
        18.5004         17.0004
  23759249.2394    4061321.39946   3113623.75546                  23759256.7434
        12.5004         13.5004
  22659204.9814    5974818.85746   4567648.94346                  22659212.8964
        17.5004         18.7504
  23315535.7714    5674073.79846   4335777.60846                  23315542.6774
        18.0004         17.7504
  20710487.1924    1247473.64048    974926.15147                  20710493.3454
        29.0004         27.7504
  20917486.6464    2032519.23547   1571149.09647                  20917493.0324
        23.7504         26.2504
  20718870.1064     556249.45847    453196.28147                  20718876.0014
        22.0004         26.5004
  22516052.1384   -1380316.97147   -987130.87246                  22516059.8644
        20.7504         22.0004
  23725752.0914    -245835.93146   -140400.31646                  23725760.0174
        12.5004         12.5004
 02  7  8 17 10 45.0010000  0  9G26G29G 6G23G15G17G18G21G 3
  22806076.5444    3542889.18846   2722942.91146                  22806082.9544
        18.5004         17.2504
  23769348.5134    4114395.85046   3154980.46246                  23769356.7434
        12.2504         13.5004
  22672687.5674    6045670.23046   4622857.73946                  22672695.5524
        17.0004         18.5004
  23327955.3724    5739339.46046   4386633.95646                  23327962.5364
        18.2504         17.7504
  20714589.4814    1269031.73048    991724.65647                  20714595.5994
        28.5004         28.0004
  20923045.1534    2061730.31447   1593910.97147                  20923051.5874
        24.5004         26.2504
  20722070.9274     573071.03247    466304.00847                  20722076.9154
        22.2504         26.5004
  22515058.2314   -1385540.02047   -991200.75446                  22515065.9704
        20.7504         22.0004
  23721858.0364    -266298.21746   -156344.92346                  23721865.7164
        12.2504         12.2504
 02  7  8 17 11  0.0010000  0  9G26G29G 6G23G15G17G18G21G 3
  22815431.0214    3592048.46346   2761248.83146                  22815437.5014
        18.0004         17.2504
  23779485.1224    4167662.00346   3196486.54946                  23779493.2594
        12.2504         13.0004
  22686199.4814    6116674.92946   4678186.01746                  22686207.4424
        17.5004         18.5004
  23340395.1534    5804710.56846   4437572.45446                  23340402.4934
        18.2504         18.0004
  20718719.5444    1290735.76148   1008636.88347                  20718725.7314
        28.7504         28.2504
  20928630.0674    2091079.81947   1616780.70747                  20928636.4784
        24.5004         26.2504
  20725307.9424     590081.27747    479558.75247                  20725313.8724
        22.2504         26.7504
  22514092.5054   -1390613.82747   -995154.34946                  22514100.4314
        20.2504         22.2504
  23717990.3334    -286620.31646   -172180.31446                  23717997.9194
        12.7504         12.5004
 02  7  8 17 11 15.0010000  0  9G26G29G 6G23G15G17G18G21G 3
  22824829.7004    3641436.88146   2799733.30246                  22824836.2864
        18.2504         17.2504
  23789658.6854    4221123.85646   3238145.11346                  23789666.4464
        12.5004         13.5004
  22699740.9974    6187836.90346   4733636.84446                  22699749.2284
        17.5004         18.7504
  23352855.6224    5870191.14246   4488596.27146                  23352862.6104
        18.0004         17.7504
  20722878.3884    1312590.00048   1025666.16447                  20722884.5994
        28.7504         28.0004
  20934242.4034    2120572.01147   1639761.63447                  20934248.7784
        24.2504         26.2504
  20728581.5284     607284.43747    492963.80047                  20728587.3174
        22.5004         27.0004
  22513156.2474   -1395534.15747   -998988.34746                  22513164.0564
        20.5004         22.2504
  23714150.8254    -306797.71646   -187902.93646                  23714157.6854
        12.2504         12.7504
 02  7  8 17 11 30.0010000  0  9G26G29G 6G23G15G17G18G21G 3
  22834271.6224    3691055.51946   2838397.15646                  22834278.5874
        17.7504         17.0004
  23799869.5604    4274782.42946   3279956.98246                  23799876.7594
        12.5004         13.2504
  22713312.7944    6259157.22546   4789211.05446                  22713320.7434
        17.7504         18.7504
  23365337.3174    5935782.29646   4539706.23746                  23365344.9034
        18.2504         17.7504
  20727065.9974    1334595.81748   1042813.54847                  20727072.0794
        28.5004         28.0004
  20939881.8334    2150208.45947   1662854.97047                  20939888.0914
        24.2504         26.0004
  20731892.3724     624681.74847    506520.15547                  20731898.1854
        22.7504         27.0004
  22512249.4504   -1400299.76447  -1002701.77646                  22512257.1654
        20.7504         22.5004
  23710339.3254    -326828.74245   -203511.51146                  23710346.6184
        11.7504         12.2504
 02  7  8 17 11 45.0010000  0  9G26G29G 6G23G15G17G18G21G 3
  22843758.3494    3740908.34946   2877243.51046                  22843765.6064
        17.5004         17.0004
  23810118.3644    4328641.63046   3321925.16646                  23810125.6464
        12.5004         13.2504
  22726915.5054    6330639.67146   4844911.61246                  22726923.5604
        17.5004         18.2504
  23377840.7714    6001487.82246   4590905.33046                  23377847.5914
        18.5004         17.5004
  20731283.0754    1356757.32748   1060082.25547                  20731289.2394
        28.7504         28.2504
  20945549.5914    2179993.02947   1686063.71847                  20945556.1064
        24.0004         26.2504
  20735240.4424     642277.09147    520230.81347                  20735246.4424
        22.2504         27.0004
  22511372.6924   -1404906.27247  -1006291.24646                  22511380.4894
        20.7504         22.5004
  23706555.8884    -346709.01045   -219002.61246                  23706563.4384
        11.7504         12.5004
 02  7  8 17 12  0.0010000  0  9G26G29G 6G23G15G17G18G21G 3
  22853288.9424    3790992.50446   2916270.11646                  22853295.8374
        18.0004         17.0004
  23820405.1694    4382698.65046   3364047.50646                  23820411.9194
        12.7504         13.2504
  22740548.9584    6402281.52246   4900736.35946                  22740556.8024
        18.0004         18.7504
  23390365.2314    6067304.98646   4642191.42346                  23390372.5364
        18.0004         17.7504
  20735529.4114    1379072.09048   1077470.38247                  20735535.6104
        28.5004         28.0004
  20951245.0364    2209923.29947   1709386.00547                  20951251.4464
        23.7504         26.0004
  20738626.2084     660068.10947    534093.94747                  20738632.2084
        22.5004         27.0004
  22510526.0604   -1409356.36347  -1009758.82946                  22510533.7984
        21.0004         22.2504
  23702801.0604    -366440.75845   -234377.95046                  23702808.4584
        11.7504         12.2504
 02  7  8 17 12 15.0010000  0  9G26G29G 6G23G15G17G18G21G 3
  22862864.9274    3841314.02046   2955481.66646                  22862871.9854
        17.5004         17.0004
  23830730.3494    4436959.49646   3406328.67746                  23830737.5954
        12.7504         13.5004
  22754213.2474    6474088.71546   4956689.95346                  22754221.1264
        17.7504         18.7504
  23402912.3804    6133239.77846   4693569.15846                  23402919.4154
        18.0004         17.5004
  20739806.3174    1401546.40648   1094982.82947                  20739812.4234
        29.0004         28.0004
  20956969.3564    2240005.69047   1732826.82647                  20956975.7674
        23.7504         26.0004
  20742049.7634     678060.75947    548114.19847                  20742055.7864
        22.5004         27.0004
  22509709.9194   -1413643.90047  -1013099.75446                  22509717.4114
        21.5004         22.5004
  23699075.9194    -386017.48446   -249632.53946                  23699083.6574
        12.0004         12.2504
 02  7  8 17 12 30.0010000  0  9G26G29G 6G23G15G17G18G21G 3
  22872486.8804    3891877.30846   2994881.62946                  22872494.1264
        17.5004         16.7504
  23841095.5134    4491428.60346   3448772.11546                  23841101.9114
        12.7504         13.2504
  22767910.2944    6546065.71146   5012775.87146                  22767918.6304
        17.5004         18.0004
  23415482.3644    6199296.59946   4745041.99246                  23415489.6574
        18.2504         17.5004
  20744114.2474    1424184.94348   1112623.24447                  20744120.3884
        29.0004         28.0004
  20962723.9664    2270244.72347   1756389.70447                  20962730.4584
        23.7504         25.7504
  20745513.1534     696259.68447    562295.18747                  20745519.0714
        22.7504         27.0004
  22508926.1224   -1417764.19047  -1016310.35346                  22508933.7904
        21.7504         23.0004
  23695380.7634    -405434.19145   -264762.42746                  23695387.8564
        11.7504         12.0004
 02  7  8 17 12 45.0010000  0  9G26G29G 6G23G15G17G18G21G 3
  22882154.6224    3942682.63346   3034470.18646                  22882161.2314
        17.5004         16.7504
  23851500.4034    4546106.33846   3491378.11246                  23851507.3454
        12.7504         13.2504
  22781639.1694    6618212.76846   5068994.30046                  22781647.1184
        17.2504         18.2504
  23428075.9114    6265475.77746   4796610.16646                  23428083.1924
        18.0004         17.5004
  20748453.6464    1446988.31148   1130392.10047                  20748459.7514
        28.7504         28.2504
  20968508.2394    2300641.12247   1780075.20547                  20968514.7784
        23.5004         25.7504
  20749015.6534     714665.34647    576637.25647                  20749021.4784
        22.7504         27.2504
  22508173.7944   -1421716.66747  -1019390.19346                  22508181.6034
        22.2504         23.0004
  23691715.7634    -424690.07545   -279766.98346                  23691723.2554
        11.7504         12.5004
 02  7  8 17 13  0.0010000  0  9G26G29G 6G23G15G17G18G21G 3
  22891869.7554    3993736.67646   3074252.54546                  22891876.0014
        17.7504         17.0004
  23861946.4894    4600999.21146   3534151.78546                  23861953.5134
        12.5004         13.0004
  22795402.2004    6690536.58046   5125350.45446                  22795410.6774
        16.7504         18.0004
  23440694.0754    6331784.00046   4848278.89346                  23440701.3334
        18.0004         17.7504
  20752825.6854    1469963.51648   1148294.85647                  20752831.8494
        29.0004         28.2504
  20974323.6854    2331201.76747   1803888.68947                  20974330.2594
        23.2504         26.0004
  20752558.8884     733284.55847    591145.74347                  20752564.6884
        22.7504         27.0004
  22507455.0994   -1425494.39047  -1022333.84546                  22507462.9074
        22.2504         23.2504
  23688084.0754    -443777.89146   -294640.57046                  23688092.0014
        12.0004         12.5004
 02  7  8 17 13 15.0010000  0  9G26G29G 6G23G15G17G18G21G 3
  22901633.0914    4045040.85046   3114229.81746                  22901639.9974
        17.5004         17.0004
  23872433.3494    4656108.57246   3577094.11346                  23872440.9464
        12.2504         13.0004
  22809198.8414    6763038.38346   5181845.30746                  22809206.7204
        17.5004         18.2504
  23453336.7784    6398222.59946   4900049.21346                  23453344.0364
        18.2504         17.5004
  20757230.5604    1493112.10048   1166332.71647                  20757236.6184
        28.5004         28.0004
  20980170.8644    2361928.37347   1827831.49647                  20980177.4624
        23.2504         26.0004
  20756142.7714     752118.85847    605821.82347                  20756148.6884
        22.5004         27.0004
  22506769.6924   -1429095.64347  -1025140.00146                  22506777.4424
        22.2504         23.2504
  23684484.0674    -462695.73345   -309381.72746                  23684492.5324
        11.5004         12.0004
 02  7  8 17 13 30.0010000  0  9G26G29G 6G23G15G17G18G21G 3
  22911444.8494    4096603.51646   3154408.49846                  22911451.5284
        17.5004         16.7504
  23882963.5054    4711442.97046   3620211.80046                  23882971.2674
        12.5004         13.0004
  22823030.9664    6835726.52946   5238485.35646                  22823038.9744
        17.2504         18.0004
  23466006.1224    6464799.96746   4951927.66446                  23466013.5094
        18.0004         17.2504
  20761670.2784    1516442.71348   1184512.40447                  20761676.3494
        28.5004         28.0004
  20986050.9814    2392829.49247   1851910.27947                  20986057.3334
        23.5004         25.7504
  20759769.2554     771176.77347    620672.15147                  20759774.9504
        22.5004         26.7504
  22506119.7714   -1432511.90447  -1027802.01146                  22506127.3684
        22.0004         23.0004
  23680918.0834    -481434.77045   -323983.55446                  23680926.3254
        11.7504         12.2504
 02  7  8 17 13 45.0010000  0  9G26G29G 6G23G15G17G18G21G 3
  22921305.2784    4148419.14146   3194784.30246                  22921312.0634
        17.2504         17.0004
  23893535.1694    4766996.80046   3663500.47546                  23893542.7084
        12.2504         13.0004
  22836897.6694    6908595.59946   5295266.40146                  22836906.1814
        16.7504         17.7504
  23478700.8494    6531510.69546   5003910.02846                  23478707.9894
        17.7504         17.2504
  20766143.4584    1539950.23248   1202829.94947                  20766149.5524
        28.5004         28.0004
  20991963.4974    2423899.99047   1876121.04947                  20991969.9664
        24.0004         25.7504
  20763437.5054     790453.03847    635692.62247                  20763443.2944
        22.5004         26.7504
  22505503.9274   -1435747.97147  -1030323.60546                  22505511.5014
        22.0004         23.0004
  23677385.5214    -499999.88645   -338449.86646                  23677393.3534
        11.5004         12.7504
 02  7  8 17 14  0.0010000  0  9G26G29G 6G23G15G17G18G21G 3
  22931214.9744    4200495.19746   3235363.03746                  22931221.6304
        17.5004         16.7504
  23904149.4194    4822777.53646   3706965.98946                  23904156.3724
        12.2504         13.2504
  22850799.8644    6981653.00946   5352194.18146                  22850807.9894
        16.2504         17.7504
  23491422.2164    6598362.21346   5056002.10346                  23491429.2864
        17.5004         17.2504
  20770652.0364    1563642.44748   1221291.41647                  20770658.2244
        28.2504         28.0004
  20997910.0214    2455147.64947   1900469.87047                  20997916.3844
        23.7504         25.7504
  20767148.5284     809955.15347    650889.08247                  20767154.2824
        22.5004         26.7504
  22504923.6464   -1438796.67847  -1032699.20246                  22504931.4314
        22.0004         23.0004
  23673887.2554    -518383.06745   -352774.39746                  23673894.0994
        11.7504         12.2504
 02  7  8 17 14 15.0010000  0  9G26G29G 6G23G15G17G18G21G 3
  22941175.6384    4252837.96146   3276149.59646                  22941182.8964
        17.0004         17.0004
  23914809.1774    4878791.46746   3750613.16646                  23914816.2124
        12.0004         12.7504
  22864739.3724    7054904.97146   5409273.57346                  22864747.4744
        16.2504         17.7504
  23504171.8494    6665360.69246   5108208.69546                  23504179.3534
        17.0004         17.0004
  20775197.0364    1587525.82948   1239901.84447                  20775203.2944
        28.5004         28.2504
  21003890.9744    2486578.92647   1924961.76747                  21003897.3964
        23.7504         25.7504
  20770903.8254     829689.59047    666266.56847                  20770909.6264
        22.2504         26.5004
  22504380.2944   -1441651.51047  -1034923.72946                  22504387.8804
        22.2504         23.0004
  23670424.6924    -536577.57246   -366951.91246                  23670432.3844
        12.0004         13.0004
 02  7  8 17 14 30.0010000  0  9G26G29G 6G23G15G17G18G21G 3
  22951186.1304    4305444.56546   3317141.75046                  22951192.9154
        17.5004         17.0004
  23925511.9974    4935035.53546   3794439.72146                  23925519.1144
        12.7504         12.7504
  22878715.2164    7128348.56346   5466502.28846                  22878723.0014
        16.7504         18.0004
  23516948.5674    6732503.37346   5160527.64946                  23516955.8844
        17.0004         16.7504
  20779777.6774    1611597.81148   1258659.23247                  20779784.0404
        28.2504         28.0004
  21009906.7864    2518191.30647   1949594.78747                  21009913.2314
        23.5004         25.7504
  20774702.8884     849653.58647    681822.93747                  20774708.7354
        22.5004         26.5004
  22503873.4974   -1444315.05547  -1036999.20446                  22503881.0834
        22.5004         23.2504
  23666998.1694    -554585.73346   -380984.23146                  23667006.9274
        12.0004         12.7504
 02  7  8 17 14 45.0010000  0  9G26G29G 6G23G15G17G18G21G 3
  22961248.2084    4358321.28146   3358344.37346                  22961255.1384
        17.5004         17.0004
  23936259.8414    4991516.36346   3838450.73046                  23936267.2864
        12.5004         13.0004
  22892728.9274    7201990.14946   5523885.28046                  22892736.9704
        17.0004         17.7504
  23529753.9274    6799796.53146   5212963.85246                  23529761.4664
        17.2504         16.7504
  20784395.5054    1635864.99548   1277568.72347                  20784401.7514
        28.2504         28.0004
  21015958.0214    2549991.25547   1974373.95947                  21015964.5364
        23.7504         25.7504
  20778546.8964     869853.54147    697563.17047                  20778552.4974
        22.5004         26.7504
  22503404.3564   -1446780.64047  -1038920.42146                  22503411.9664
        22.5004         23.5004
  23663607.9034    -572400.65746   -394865.97046                  23663615.9234
        12.2504         13.2504
 02  7  8 17 15  0.0010000  0  9G26G29G 6G23G15G17G18G21G 3
  22971361.1694    4411465.00246   3399755.06846                  22971368.1104
        17.5004         16.5004
  23947051.7714    5048230.66046   3882643.65946                  23947059.2284
        12.5004         12.5004
  22906779.3804    7275826.61346   5581420.12846                  22906787.2474
        17.0004         17.5004
  23542587.2634    6867237.12146   5265514.93946                  23542594.5674
        17.0004         16.7504
  20789049.9894    1660324.46048   1296628.04447                  20789056.1884
        28.7504         28.0004
  21022044.5134    2581976.23747   1999297.31447                  21022050.9934
        23.7504         25.7504
  20782434.9814     890286.61547    713485.04347                  20782440.6884
        22.2504         26.5004
  22502972.5524   -1449050.91147  -1040689.44646                  22502980.4074
        22.5004         23.2504
  23660254.2474    -590024.99546   -408599.20246                  23660262.3374
        12.2504         13.0004
 02  7  8 17 15 15.0010000  0  9G26G29G 6G23G15G17G18G21G 3
  22981525.7474    4464880.17946   3441377.27146                  22981532.7594
        17.0004         17.0004
  23957889.3644    5105182.76446   3927021.91946                  23957896.3174
        12.2504         13.0004
  22920867.6464    7349862.30646   5639110.22246                  22920875.4664
        16.7504         17.5004
  23555449.9744    6934829.58546   5318184.37546                  23555457.6534
        16.7504         17.0004
  20793741.9894    1684980.93348   1315840.87847                  20793748.0834
        28.2504         28.0004
  21028167.0994    2614150.69947   2024368.32147                  21028173.5444
        23.7504         25.7504
  20786368.5444     910957.35647    729592.12147                  20786374.4034
        22.2504         26.2504
  22502578.3564   -1451121.47847  -1042302.86146                  22502586.0484
        22.7504         23.0004
  23656937.6534    -607453.78946   -422180.04346                  23656945.4154
        12.2504         13.0004
 02  7  8 17 15 30.0010000  0  9G26G29G 6G23G15G17G18G21G 3
  22991742.8414    4518572.19446   3483215.19146                  22991750.1924
        17.0004         17.0004
  23968773.4114    5162378.18646   3971589.76246                  23968780.3294
        12.5004         12.7504
  22934995.6064    7424102.60646   5696959.74346                  22935003.4154
        16.5004         17.5004
  23568342.1774    7002579.36446   5370976.38546                  23568349.8214
        16.5004         16.7504
  20798472.5754    1709840.25248   1335211.77147                  20798478.6924
        28.5004         27.7504
  21034326.8254    2646520.53347   2049591.55547                  21034333.3174
        24.0004         26.0004
  20790348.4504     931871.34147    745888.73847                  20790354.2634
        22.2504         26.2504
  22502223.4354   -1452986.52147  -1043756.12746                  22502230.8924
        22.5004         22.7504
  23653659.6854    -624680.96846   -435603.81446                  23653666.9664
        12.7504         13.5004
 02  7  8 17 15 45.0010000  0  9G26G29G 6G23G15G17G18G21G 3
  23002010.7084    4572529.17746   3525259.59246                  23002018.2244
        17.0004         16.7504
  23979701.4814    5219804.95746   4016337.87746                  23979709.1494
        12.5004         12.5004
  22949159.8334    7498535.64446   5754959.45946                  22949168.1694
        16.5004         17.0004
  23581261.9274    7070474.62846   5423881.76846                  23581269.6884
        16.5004         16.5004
  20803239.7474    1734890.80248   1354731.68447                  20803246.0284
        28.2504         27.7504
  21040521.7714    2679074.09247   2074957.96247                  21040528.0874
        23.7504         25.7504
  20794372.2004     953016.81747    762365.74147                  20794377.7674
        22.7504         26.5004
  22501905.3884   -1454657.71947  -1045058.34246                  22501912.5524
        22.5004         23.0004
  23650417.6854    -641717.88246   -448879.30446                  23650425.7634
        12.7504         13.2504
 02  7  8 17 16  0.0010000  0  9G26G29G 6G23G15G17G18G21G 3
  23012328.7944    4626750.94046   3567510.29646                  23012336.1104
        17.2504         16.7504
  23990673.3964    5277463.01646   4061266.21646                  23990680.8644
        12.5004         12.7504
  22963360.4354    7573161.22446   5813109.19146                  22963368.2784
        16.5004         17.2504
  23594209.9424    7138515.27546   5476900.43646                  23594217.9154
        16.0004         16.5004
  20808042.8884    1760132.68448   1374400.67847                  20808048.9464
        28.0004         28.0004
  21046751.4354    2711811.52847   2100467.64747                  21046757.8334
        24.0004         25.7504
  20798440.1144     974393.83747    779023.15547                  20798445.6694
        23.0004         26.7504
  22501624.1144   -1456134.82047  -1046209.31346                  22501631.4664
        22.5004         23.0004
  23647211.1924    -658564.14146   -462006.24546                  23647218.8964
        12.7504         13.5004
 02  7  8 17 16 15.0010000  0  9G26G29G 6G23G15G17G18G21G 3
  23022696.4664    4681233.68946   3609964.38646                  23022703.4424
        17.5004         16.7504
  24001688.7314    5335348.48046   4106371.75146                  24001696.6814
        12.2504         12.7504
  22977597.0364    7647975.53046   5871406.00146                  22977604.9274
        16.0004         17.0004
  23607184.6694    7206697.55446   5530029.46646                  23607192.3964
        16.0004         16.7504
  20812881.9974    1785562.39348   1394216.03747                  20812888.4424
        28.2504         28.2504
  21053015.4974    2744729.29347   2126117.84747                  21053021.8604
        24.0004         25.7504
  20802551.5674     995998.72947    795858.14347                  20802557.2634
        22.7504         26.7504
  22501379.4744   -1457421.33547  -1047211.77046                  22501386.8844
        22.2504         23.0004
  23644041.1064    -675223.03746   -474987.18346                  23644049.3134
        12.7504         13.0004
 02  7  8 17 16 30.0010000  0  9G26G29G 6G23G15G17G18G21G 3
  23033113.3334    4735975.66146   3652620.45546                  23033119.9784
        17.5004         16.7504
  24012746.6534    5393459.64346   4151653.16346                  24012754.8494
        12.2504         12.7504
  22991869.3104    7722976.74346   5929848.43746                  22991877.4704
        16.0004         16.7504
  23620185.7314    7275019.66846   5583267.45246                  23620193.7514
        16.0004         16.5004
  20817756.5754    1811178.44148   1414176.59147                  20817762.8564
        28.2504         28.0004
  21059313.6384    2777825.98547   2151907.47247                  21059320.1064
        24.0004         25.7504
  20806705.8724    1017829.78347    812869.35447                  20806711.7434
        22.5004         26.7504
  22501170.5444   -1458518.91547  -1048067.01546                  22501177.9544
        22.5004         23.0004
  23640906.9114    -691695.75146   -487823.03146                  23640914.0994
        13.0004         13.2504
 02  7  8 17 16 45.0010000  0  9G26G29G 6G23G15G17G18G21G 3
  23043579.7474    4790974.33846   3695476.54546                  23043586.3804
        17.7504         16.5004
  24023847.9584    5451793.90946   4197108.41246                  24023855.8724
        12.2504         12.7504
  23006176.6614    7798162.41746   5988434.61646                  23006184.3174
        16.0004         17.0004
  23633213.0674    7343479.16646   5636612.49446                  23633220.9354
        15.7504         16.2504
  20822666.2244    1836978.73848   1434280.71247                  20822672.4704
        28.7504         28.2504
  21065645.3104    2811099.36647   2177834.77447                  21065651.5674
        24.2504         25.7504
  20810902.7554    1039884.78447    830055.07547                  20810908.4504
        22.2504         27.0004
  22500997.2864   -1459430.05847  -1048776.97546                  22501004.7554
        22.7504         23.2504
  23637807.0604    -707984.23946   -500515.34946                  23637814.7634
        13.0004         13.5004
 02  7  8 17 17  0.0010000  0  9G26G29G 6G23G15G17G18G21G 3
  23054093.3724    4846226.06846   3738529.84546                  23054100.2164
        17.5004         16.7504
  24034989.8804    5510347.80646   4242734.81046                  24034997.2554
        12.2504         12.5004
  23020518.6304    7873528.86046   6047161.64646                  23020527.0134
        16.0004         17.0004
  23646266.0754    7412072.40646   5690061.75046                  23646273.5674
        15.7504         16.2504
  20827610.2784    1862959.94648   1454525.80347                  20827616.5954
        28.2504         28.2504
  21072010.0604    2844546.06847   2203897.13247                  21072016.3294
        24.2504         25.7504
  20815141.6614    1062160.21147    847412.55647                  20815147.3924
        22.7504         26.7504
  22500858.6614   -1460157.76547  -1049344.00546                  22500865.8964
        23.0004         23.5004
  23634741.8884    -724091.51146   -513066.43746                  23634750.2244
        13.0004         13.5004
 02  7  8 17 17 15.0010000  0  9G26G29G 6G23G15G17G18G21G 3
  23064654.2314    4901723.31346   3781774.42146                  23064661.2084
        17.5004         16.5004
  24046172.9504    5569113.65646   4288526.34046                  24046180.5244
        12.2504         12.5004
  23034893.5754    7949068.53046   6106023.66346                  23034901.8884
        16.5004         17.5004
  23659343.0754    7480791.79746   5743609.30446                  23659350.9424
        15.7504         16.0004
  20832587.5524    1889114.77748   1474906.19047                  20832593.9504
        28.2504         28.2504
  21078406.3804    2878158.92447   2230088.96246                  21078412.5914
        24.2504         25.5004
  20819421.0674    1084648.68247    864936.04647                  20819426.6344
        22.7504         26.7504
  22500753.6694   -1460709.23747  -1049773.70446                  22500760.9744
        22.7504         23.2504
  23631710.2634    -740024.61846   -525481.83746                  23631717.8374
        13.0004         13.0004
 02  7  8 17 17 30.0010000  0  9G26G29G 6G23G15G17G18G21G 3
  23075260.8104    4957460.37746   3825205.90346                  23075267.5244
        17.0004         16.2504
  24057394.8174    5628085.72746   4334478.60446                  24057403.0014
        12.0004         12.5004
  23049300.1774    8024775.70646   6165016.21246                  23049308.4314
        16.0004         17.2504
  23672442.9034    7549631.66446   5797250.74346                  23672450.5834
        15.2504         16.0004
  20837596.4974    1915437.72948   1495417.57847                  20837602.8964
        28.2504         28.5004
  21084833.1774    2911932.49247   2256406.02447                  21084839.4234
        24.2504         25.7504
  20823740.0134    1107344.62747    882621.20547                  20823745.5914
        22.7504         27.0004
  22500681.2084   -1461090.07947  -1050070.44346                  22500688.9354
        22.7504         23.2504
  23628710.1304    -755788.86646   -537765.65346                  23628718.0564
        13.0004         13.0004
 02  7  8 17 17 45.0010000  0  9G26G29G 6G23G15G17G18G21G 3
  23085910.9894    5013427.29946   3868816.47846                  23085917.9784
        17.0004         16.5004
  24068654.1224    5687254.20246   4380583.88146                  24068662.4234
        12.2504         12.5004
  23063736.8254    8100640.43746   6224131.51546                  23063745.2314
        16.2504         17.2504
  23685563.6144    7618582.16746   5850978.38546                  23685571.8684
        15.2504         16.0004
  20842635.6144    1941919.19948   1516052.48647                  20842642.0014
        28.2504         28.2504
  21091288.9194    2945857.12747   2282840.79946                  21091295.1534
        24.5004         25.5004
  20828096.6224    1130238.35447    900460.47047                  20828102.3644
        22.7504         27.0004
  22500639.2864   -1461310.12747  -1050241.89446                  22500646.7084
        22.2504         23.0004
  23625740.5134    -771393.59846   -549925.17146                  23625747.1924
        13.0004         13.5004
 02  7  8 17 18  0.0010000  0  9G26G29G 6G23G15G17G18G21G 3
  23096603.7084    5069619.03346   3912602.23746                  23096610.0604
        17.0004         16.0004
  24079949.9424    5746613.95445   4426838.21046                  24079957.4234
        11.5004         12.5004
  23078202.4974    8176657.69746   6283365.68546                  23078210.4114
        16.5004         17.2504
  23698704.4814    7687638.31946   5904788.35046                  23698712.1614
        15.2504         16.0004
  20847704.1464    1968554.47448   1536807.24647                  20847710.3924
        28.2504         28.2504
  21097772.2944    2979928.20947   2309389.68746                  21097778.3994
        24.5004         25.5004
  20832489.7394    1153324.90447    918449.99647                  20832495.6104
        22.7504         26.7504
  22500627.1614   -1461373.94247  -1050291.59546                  22500634.2554
        22.2504         23.0004
  23622801.1464    -786843.07246   -561963.70146                  23622808.3214
        12.7504         13.2504
 02  7  8 17 18 15.0010000  0  9G26G29G 6G23G15G17G18G21G 3
  23107337.8414    5126027.96646   3956557.23446                  23107344.1464
        17.0004         16.2504
  24091280.6774    5806157.38045   4473235.65746                  24091288.1224
        11.2504         12.5004
  23092695.3964    8252819.85446   6342712.76646                  23092703.2634
        16.2504         17.0004
  23711864.3564    7756792.47046   5958674.68746                  23711872.5284
        15.7504         15.7504
  20852800.6774    1995336.18948   1557676.10947                  20852806.7594
        28.5004         28.5004
  21104282.4974    3014138.29247   2336046.89447                  21104288.6034
        24.2504         25.7504
  20836918.2084    1176596.76347    936583.91547                  20836923.9384
        22.7504         26.7504
  22500643.2474   -1461289.07847  -1050225.45446                  22500650.7514
        22.5004         23.2504
  23619889.0994    -802144.40546   -573886.81546                  23619896.5794
        12.7504         13.2504
 02  7  8 17 18 30.0010000  0  9G26G29G 6G23G15G17G18G21G 3
  23118114.4974    5182658.47346   4000684.88446                  23118120.9314
        17.0004         16.0004
  24102647.4894    5865888.84645   4519779.64846                  24102653.6884
        11.5004         12.2504
  23107217.0604    8329131.25546   6402176.13946                  23107225.0794
        15.7504         16.7504
  23725043.4584    7826049.11846   6012640.88246                  23725051.4544
        15.7504         15.7504
  20857925.9504    2022269.11348   1578662.80147                  20857932.1494
        28.2504         28.5004
  21110819.7554    3048492.03647   2362816.04446                  21110826.0954
        24.5004         25.5004
  20841382.7784    1200058.58547    954865.85847                  20841388.3684
        23.0004         27.0004
  22500688.7554   -1461050.82147  -1050039.77746                  22500696.0954
        22.7504         23.2504
  23617006.4034    -817292.74146   -585690.69846                  23617013.8844
        12.7504         13.2504
 02  7  8 17 18 45.0010000  0  9G26G29G 6G23G15G17G18G21G 3
  23128931.6224    5239502.74946   4044979.11146                  23128938.5054
        16.7504         16.2504
  24114047.9974    5925800.65445   4566464.16646                  24114054.5604
        11.2504         12.0004
  23121765.6144    8405584.10346   6461749.70646                  23121773.7394
        15.7504         16.7504
  23738240.6144    7895400.49346   6066680.89446                  23738247.7904
        15.7504         15.2504
  20863078.4424    2049345.78748   1599761.50547                  20863084.8294
        28.2504         28.5004
  21117382.6694    3082982.11147   2389691.42246                  21117388.9854
        24.2504         25.5004
  20845882.2004    1223702.75047    973289.88447                  20845887.8374
        22.7504         27.0004
  22500761.7784   -1460666.47947  -1049740.27946                  22500768.8844
        23.2504         23.2504
  23614151.1304    -832295.29146   -597380.96546                  23614158.4584
        12.2504         13.0004
 02  7  8 17 19  0.0010000  0  9G26G29G 6G23G15G17G18G21G 3
  23139787.2864    5296549.97146   4089431.47546                  23139794.0134
        17.2504         16.2504
  24125482.0364    5985881.88745   4613280.69046                  24125489.4354
        10.7504         12.0004
  23136339.2314    8482167.60546   6521425.10346                  23136347.3454
        15.7504         16.2504
  23751453.9814    7964835.89446   6120786.37846                  23751461.6384
        16.0004         15.7504
  20868256.3174    2076555.81448   1620964.12647                  20868262.8454
        28.2504         28.5004
  21123970.1384    3117598.04947   2416664.88246                  21123976.6884
        24.2504         25.5004
  20850414.2164    1247518.54047    991847.64247                  20850419.7474
        23.0004         27.0004
  22500860.7164   -1460146.64847  -1049335.19946                  22500868.3024
        22.7504         23.5004
  23611322.7244    -847162.26446   -608965.60546                  23611330.5324
        12.7504         13.5004
 02  7  8 17 19 15.0010000  0  9G26G29G 6G23G15G17G18G21G 3
  23150681.2474    5353799.05746   4134041.14046                  23150687.9624
        16.5004         16.0004
  24136946.3564    6046131.36645   4660228.31546                  24136953.2864
        10.7504         12.2504
  23150937.2634    8558880.52646   6581201.34146                  23150945.4934
        15.2504         16.5004
  23764682.8564    8034354.11346   6174956.39346                  23764690.3134
        15.7504         15.2504
  20873459.2244    2103898.16748   1642269.85747                  20873465.5754
        28.2504         28.5004
  21130581.0754    3152338.82747   2443735.61946                  21130587.6144
        24.0004         25.5004
  20854978.6144    1271504.95347   1010538.35747                  20854984.2044
        23.0004         27.0004
  22500985.1534   -1459492.20747  -1048825.22246                  22500992.6694
        22.7504         23.2504
  23608518.5524    -861894.39546   -620445.17646                  23608525.4464
        12.5004         13.5004
 02  7  8 17 19 30.0010000  0  9G26G29G 6G23G15G17G18G21G 3
  23161613.3104    5411246.72046   4178805.53246                  23161620.4624
        16.7504         16.2504
  24148442.8964    6106546.08945   4707304.71046                  24148450.2004
        11.0004         12.2504
  23165559.5674    8635719.74046   6641075.99846                  23165567.9854
        15.7504         16.0004
  23777926.6144    8103952.08746   6229188.55946                  23777933.5794
        15.0004         15.5004
  20878686.9974    2131370.02448   1663676.49747                  20878693.4314
        28.2504         28.5004
  21137215.2084    3187201.77047   2470901.54947                  21137221.5364
        24.2504         25.7504
  20859574.9664    1295659.02947   1029359.71947                  20859580.6964
        22.7504         26.5004
  22501134.7944   -1458706.11447  -1048212.66146                  22501142.2284
        22.2504         23.2504
  23605740.5674    -876494.18446   -631821.61546                  23605748.0484
        12.5004         13.0004
 02  7  8 17 19 45.0010000  0  9G26G29G 6G23G15G17G18G21G 3
  23172583.2634    5468894.20446   4223725.64046                  23172590.1924
        17.0004         16.0004
  24159971.1694    6167127.12745   4754510.68546                  24159978.8134
        11.0004         12.5004
  23180205.6384    8712686.42746   6701049.96546                  23180213.4464
        15.7504         16.5004
  23791186.0364    8173631.04046   6283483.83846                  23791193.4354
        15.2504         15.2504
  20883939.7084    2158972.84548   1685185.19147                  20883945.8724
        28.2504         28.2504
  21143873.0524    3222188.24047   2498163.72847                  21143879.2864
        24.5004         25.7504
  20864203.5284    1319982.12347   1048312.78247                  20864209.1534
        22.7504         26.5004
  22501309.3964   -1457786.73647  -1047496.25046                  22501316.9234
        22.2504         23.2504
  23602987.8174    -890959.77246   -643093.46046                  23602995.7554
        12.7504         13.7504
 02  7  8 17 20  0.0010000  0  9G26G29G 6G23G15G17G18G21G 3
  23183589.5994    5526731.88946   4268793.94746                  23183596.4194
        17.0004         16.2504
  24171529.3564    6227864.91445   4801838.82346                  24171536.7084
        11.2504         12.2504
  23194874.4974    8789771.05446   6761115.85146                  23194882.4584
        15.5004         16.5004
  23804459.1064    8243381.47246   6337834.79446                  23804466.3174
        15.5004         15.5004
  20889215.4744    2186697.51548   1706788.82447                  20889221.7674
        28.0004         28.2504
  21150552.4584    3257289.06147   2525515.01047                  21150558.6574
        24.2504         25.7504
  20868862.4584    1344464.76147   1067390.16247                  20868868.1304
        22.7504         26.7504
  22501507.9504   -1456743.59847  -1046683.39746                  22501515.5134
        22.0004         23.2504
  23600258.9274    -905300.24246   -654267.84146                  23600266.7354
        13.0004         13.7504
 02  7  8 17 20 15.0010000  0  9G26G29G 6G23G15G17G18G21G 3
  23194630.8174    5584755.03546   4314006.77346                  23194637.3804
        16.5004         15.7504
  24183116.0674    6288754.70145   4849285.40346                  24183123.6774
        11.5004         12.2504
  23209564.4504    8866968.76446   6821269.85046                  23209572.9624
        15.5004         16.7504
  23817744.9974    8313198.63346   6392237.75446                  23817752.1854
        15.7504         15.5004
  20894513.5604    2214539.44748   1728483.83347                  20894519.7944
        28.0004         28.2504
  21157252.6534    3292499.73147   2552951.89047                  21157259.0054
        24.5004         25.7504
  20873550.8724    1369102.44247   1086588.35747                  20873556.3104
        23.0004         26.7504
  22501729.0444   -1455581.22747  -1045777.64446                  22501736.4424
        22.0004         23.5004
  23597553.0284    -919519.84846   -665348.04446                  23597560.7204
        13.2504         13.5004
 02  7  8 17 20 30.0010000  0  9G26G29G 6G23G15G17G18G21G 3
  23205707.4814    5642962.78946   4359363.44446                  23205714.2204
        16.5004         15.7504
  24194732.0364    6349795.61745   4896849.71746                  24194738.9314
        11.2504         12.0004
  23224276.3334    8944278.77546   6881511.34946                  23224284.7284
        15.0004         16.2504
  23831043.2314    8383081.72746   6446692.09746                  23831050.6534
        15.2504         15.5004
  20899833.8884    2242498.25948   1750269.92147                  20899840.3564
        28.0004         28.2504
  21163973.9974    3327819.78647   2580474.00947                  21163980.2904
        24.5004         25.7504
  20878268.6064    1393894.38847   1105906.75047                  20878274.0324
        23.0004         26.7504
  22501973.0524   -1454300.22047  -1044779.44346                  22501980.7784
        22.0004         23.5004
  23594869.8644    -933618.83846   -676334.24546                  23594877.2514
        13.7504         14.0004
 02  7  8 17 20 45.0010000  0  9G26G29G 6G23G15G17G18G21G 3
  23216819.4744    5701357.34746   4404865.68846                  23216826.2354
        16.5004         15.7504
  24206376.8494    6410990.05245   4944533.68646                  24206384.4814
        11.5004         12.2504
  23239009.6224    9021703.28046   6941842.06646                  23239018.0754
        14.7504         16.0004
  23844354.6854    8453033.06746   6501199.61046                  23844362.0714
        15.2504         15.2504
  20905176.9744    2270576.43547   1772149.01747                  20905183.6424
        27.7504         28.2504
  21170716.6774    3363251.67747   2608083.27147                  21170723.0174
        24.5004         26.0004
  20883016.1224    1418843.00547   1125347.23447                  20883021.9814
        22.2504         26.5004
  22502239.7714   -1452897.98747  -1043686.76846                  22502247.2394
        22.2504         23.2504
  23592210.6694    -947594.36146   -687224.24446                  23592217.8104
        13.5004         14.2504
 02  7  8 17 21  0.0010000  0  9G26G29G 6G23G15G17G18G21G 3
  23227966.1854    5759932.88546   4450508.95646                  23227973.1034
        16.5004         15.7504
  24218050.0054    6472332.09845   4992332.66546                  24218057.6034
        11.5004         12.0004
  23253764.0284    9099236.52046   7002257.50346                  23253772.0714
        15.0004         16.0004
  23857677.6534    8523046.91446   6555755.83246                  23857685.3804
        16.0004         15.5004
  20910541.9664    2298768.55147   1794116.91047                  20910548.7984
        27.7504         28.2504
  21177479.2864    3398790.13647   2635775.58147                  21177485.5214
        25.0004         26.0004
  20887792.4974    1443942.70347   1144905.44547                  20887798.3104
        22.2504         26.7504
  22502528.5604   -1451380.11347  -1042503.98646                  22502535.8884
        23.0004         23.2504
  23589573.5214    -961451.63246   -698022.11346                  23589581.0834
        14.0004         14.0004
 02  7  8 17 21 15.0020000  0  9G26G29G 6G23G15G17G18G21G 3
  23239147.1044    5818688.24546   4496292.32946                  23239153.8304
        16.2504         15.5004
  24229750.6974    6533820.69245   5040245.82646                  24229758.8344
        11.5004         12.0004
  23268538.8774    9176878.52346   7062757.70646                  23268546.7914
        15.2504         15.7504
  23871012.8074    8593122.85646   6610360.43546                  23871020.5924
        16.0004         15.0004
  20915927.8384    2327071.63047   1816171.25747                  20915934.7794
        27.5004         28.2504
  21184261.7364    3434432.61647   2663548.93647                  21184268.0184
        25.0004         26.2504
  20892596.9474    1469190.20947   1164578.83247                  20892602.6894
        22.7504         26.7504
  22502838.7524   -1449751.35647  -1041234.81146                  22502845.9984
        23.0004         23.7504
  23586957.9474    -975196.16946   -708732.12946                  23586965.5104
        14.0004         14.5004
 02  7  8 17 21 30.0020000  0  9G26G29G 6G23G15G17G18G21G 3
  23250360.9004    5877617.76346   4542211.41346                  23250367.4514
        16.5004         16.0004
  24241478.6824    6595449.74545   5088268.45346                  24241486.6074
        11.5004         12.7504
  23283332.8384    9254621.15246   7123336.31846                  23283340.5644
        15.2504         16.0004
  23884358.3774    8663253.88946   6665007.97246                  23884365.9394
        15.5004         15.2504
  20921334.4714    2355484.45547   1838311.12047                  20921341.1154
        27.7504         28.0004
  21191063.8544    3470176.81647   2691401.55747                  21191070.1464
        25.2504         26.0004
  20897429.2134    1494584.48447   1184366.57847                  20897434.8264
        22.7504         26.5004
  22503170.1504   -1448009.39347  -1039877.42246                  22503177.6194
        23.2504         23.7504
  23584365.0104    -988823.41046   -719350.74846                  23584372.3734
        14.0004         14.7504
 02  7  8 17 21 45.0020000  0  9G26G29G 6G23G15G17G18G21G 3
  23261608.5884    5936724.59446   4588268.63846                  23261615.8114
        16.2504         15.2504
  24253233.3544    6657222.71645   5136403.20346                  24253240.1154
        11.5004         12.2504
  23298146.6894    9332468.76846   7183996.73546                  23298154.5684
        15.2504         15.5004
  23897715.0024    8733443.90246   6719701.46046                  23897722.4594
        15.0004         15.2504
  20926762.4004    2384008.38847   1860537.56247                  20926768.8224
        27.7504         28.0004
  21197885.3464    3506024.78547   2719335.03947                  21197891.5334
        25.0004         26.2504
  20902289.7754    1520126.60647   1204269.53147                  20902295.2134
        23.0004         26.7504
  22503522.9634   -1446154.48947  -1038432.02146                  22503530.4554
        23.0004         23.7504
  23581793.9394   -1002334.47746   -729878.83546                  23581801.7134
        14.2504         14.2504
 02  7  8 17 22  0.0020000  0  9G26G29G 6G23G15G17G18G21G 3
  23272889.9944    5996009.45646   4634464.65746                  23272896.7564
        16.2504         15.2504
  24265015.5334    6719140.48645   5184650.79646                  24265022.8264
        11.5004         12.2504
  23312980.6664    9410422.19246   7244739.60446                  23312988.7214
        14.7504         15.7504
  23911083.4474    8803693.74346   6774441.57446                  23911090.6354
        15.5004         15.0004
  20932211.7214    2412644.55048   1882851.45447                  20932217.9554
        28.0004         28.0004
  21204727.1114    3541977.58147   2747350.20647                  21204733.3114
        25.5004         26.0004
  20907178.6114    1545817.44647   1224288.36647                  20907184.0254
        22.7504         26.7504
  22503897.7684   -1444185.61447  -1036897.81246                  22503905.3074
        23.0004         23.5004
  23579245.4084   -1015727.93746   -740315.28046                  23579252.4084
        14.5004         14.5004
 02  7  8 17 22 15.0020000  0  9G26G29G 6G23G15G17G18G21G 3
  23284203.8774    6055465.58046   4680794.08146                  23284210.5924
        16.0004         15.7504
  24276824.4864    6781196.08245   5233005.79446                  24276831.4394
        11.2504         12.0004
  23327833.5494    9488474.56846   7305559.56746                  23327841.7914
        15.0004         15.7504
  23924461.3144    8873996.64946   6829223.03446                  23924468.4084
        15.2504         15.0004
  20937680.9864    2441386.42448   1905247.72247                  20937687.1624
        28.0004         28.0004
  21211587.3464    3578028.66147   2775441.95047                  21211593.4394
        25.2504         26.0004
  20912094.5104    1571650.46247   1244417.98847                  20912100.0294
        22.7504         26.7504
  22504292.9794   -1442109.39947  -1035279.96946                  22504300.2604
        23.0004         23.7504
  23576717.9944   -1029010.04346   -750664.96946                  23576725.0064
        14.5004         14.5004
 02  7  8 17 22 30.0020000  0  9G26G29G 6G23G15G17G18G21G 3
  23295551.9324    6115097.42246   4727260.42646                  23295558.9084
        16.0004         15.7504
  24288660.9164    6843394.14145   5281471.79146                  24288668.4434
        11.7504         12.5004
  23342706.4474    9566630.40646   7366460.14446                  23342714.8424
        15.2504         15.7504
  23937850.6744    8944357.14946   6884049.37046                  23937857.8384
        15.0004         15.0004
  20943171.6114    2470238.81748   1927730.10147                  20943177.7754
        28.0004         28.2504
  21218467.3694    3614182.87847   2803614.05847                  21218473.4284
        25.0004         26.2504
  20917038.3544    1597630.29247   1264662.01547                  20917043.9554
        23.0004         26.7504
  22504709.3934   -1439920.98747  -1033574.70046                  22504716.7914
        23.0004         23.7504
  23574212.2294   -1042175.74946   -760923.94846                  23574219.2294
        14.2504         14.5004
 02  7  8 17 22 45.0020000  0  9G26G29G 6G23G15G17G18G21G 3
  23306932.4084    6174902.71746   4773861.95146                  23306939.1704
        15.7504         15.5004
  24300523.7054    6905732.24146   5330046.88946                  24300530.2914
        12.0004         12.0004
  23357597.9714    9644887.42346   7427439.58246                  23357606.7994
        15.0004         16.0004
  23951250.5724    9014773.02946   6938918.86146                  23951257.5614
        15.2504         15.0004
  20948682.6504    2499199.85648   1950297.14647                  20948689.0374
        28.5004         28.2504
  21225366.2364    3650438.28447   2831865.02247                  21225372.3424
        25.0004         26.0004
  20922009.6584    1623754.84147   1285018.80647                  20922015.3544
        23.2504         26.7504
  22505146.4794   -1437622.38447  -1031783.55446                  22505154.1004
        23.0004         23.7504
  23571728.8934   -1055226.77046   -771093.55046                  23571736.1274
        14.2504         14.7504
 02  7  8 17 23  0.0020000  0  9G26G29G 6G23G15G17G18G21G 3
  23318344.9864    6234876.35246   4820594.64046                  23318352.1044
        15.7504         15.5004
  24312411.6974    6968205.35945   5378727.22946                  24312418.9794
        11.7504         12.0004
  23372508.3854    9723240.53046   7488493.88046                  23372516.5454
        15.0004         15.5004
  23964659.7834    9085239.31646   6993827.64646                  23964666.2174
        14.7504         14.5004
  20954213.4944    2528264.73248   1972945.10247                  20954219.8224
        28.5004         28.2504
  21232284.1824    3686790.24947   2860191.22647                  21232290.2404
        25.0004         26.0004
  20927007.0964    1650019.11947   1305484.47747                  20927012.6044
        23.2504         27.0004
  22505603.9634   -1435218.52347  -1029910.39846                  22505611.4434
        22.7504         24.0004
  23569266.2684   -1068167.48546   -781177.22346                  23569274.0644
        14.2504         15.0004
 02  7  8 17 23 15.0020000  0  9G26G29G 6G23G15G17G18G21G 3
  23329790.5254    6295021.99046   4867461.36146                  23329797.2644
        16.0004         15.5004
  24324326.4394    7030817.27045   5427515.69546                  24324333.9084
        11.5004         12.5004
  23387437.3934    9801693.40846   7549625.92646                  23387446.7134
        14.2504         15.5004
  23978079.6504    9155759.79946   7048778.63746                  23978086.1434
        15.0004         14.7504
  20959764.9474    2557437.52048   1995677.14447                  20959771.3114
        28.7504         28.2504
  21239220.7684    3723242.65047   2888595.68747                  21239226.8264
        25.2504         25.7504
  20932032.7914    1676427.12647   1326062.14547                  20932038.1934
        23.2504         26.7504
  22506082.3304   -1432705.28847  -1027952.01346                  22506089.6934
        23.2504         24.0004
  23566825.5644   -1080993.68546   -791171.65246                  23566833.3384
        14.2504         15.0004
 02  7  8 17 23 30.0020000  0  9G26G29G 6G23G15G17G18G21G 3
  23341267.4004    6355333.42346   4914457.26446                  23341274.4364
        15.5004         15.5004
  24336265.5964    7093561.65845   5476407.42746                  24336272.3694
        11.5004         12.0004
  23402384.2444    9880239.80846   7610830.85046                  23402393.0254
        14.5004         15.2504
  23991508.2684    9226328.24746   7103767.01146                  23991515.1624
        15.0004         14.7504
  20965335.8144    2586712.19048   2018488.57747                  20965341.9434
        28.7504         28.2504
  21246175.4004    3759789.51547   2917073.76147                  21246181.5644
        25.0004         26.0004
  20937084.1274    1702972.72947   1346747.03447                  20937089.6114
        23.0004         26.7504
  22506580.2914   -1430088.88647  -1025913.24146                  22506587.7254
        23.7504         24.2504
  23564405.5414   -1093711.14546   -801081.34646                  23564412.9754
        14.2504         14.2504
 02  7  8 17 23 45.0020000  0  9G26G29G 6G23G15G17G18G21G 3
  23352775.9474    6415810.50246   4961582.26346                  23352783.3934
        15.5004         15.5004
  24348230.7294    7156438.38445   5525402.23945                  24348237.6934
        10.7504         11.7504
  23417349.1434    9958879.61746   7672108.54546                  23417357.6784
        14.2504         15.2504
  24004946.1114    9296944.53346   7158792.66846                  24004952.4284
        15.0004         14.7504
  20970926.0024    2616088.94748   2041379.55647                  20970932.0724
        28.7504         28.2504
  21253147.8934    3796431.21947   2945625.73547                  21253153.9514
        25.2504         25.7504
  20942161.7524    1729655.87747   1367539.10147                  20942167.2364
        23.0004         26.7504
  22507097.6894   -1427368.92747  -1023793.77146                  22507104.9244
        23.7504         24.2504
  23562006.4554   -1106319.43946   -810905.97746                  23562014.0764
        14.2504         14.5004
 02  7  8 17 24  0.0020000  0  9G26G29G 6G23G15G17G18G21G 3
  23364315.6894    6476453.44646   5008836.48446                  23364323.2644
        15.2504         15.5004
  24360221.2444    7219447.76245   5574500.41645                  24360228.7604
        11.0004         11.7504
  23432331.5494   10037613.16746   7733459.30846                  23432339.8264
        14.2504         15.2504
  24018393.0644    9367609.09246   7213855.93246                  24018400.0764
        15.0004         14.5004
  20976535.9634    2645568.51248   2064350.64447                  20976541.9984
        28.7504         28.2504
  21260138.9244    3833168.32347   2974252.04547                  21260145.1114
        25.2504         26.0004
  20947265.8774    1756477.14747   1388438.78847                  20947271.4794
        22.7504         26.5004
  22507635.2054   -1424544.85747  -1021593.17346                  22507642.6274
        23.5004         24.5004
  23559628.1504   -1118817.65346   -820644.82946                  23559635.4084
        14.0004         14.7504
 02  7  8 17 24 15.0020000  0  9G26G29G 6G23G15G17G18G21G 3
  23375887.0574    6537262.49646   5056220.15646                  23375894.6894
        15.0004         15.2504
  24372236.3934    7282590.04945   5623702.19045                  24372243.5804
        10.7504         11.0004
  23447332.1824   10116440.62646   7794883.22946                  23447340.5414
        13.7504         14.5004
  24031849.1044    9438322.22746   7268957.04746                  24031856.3144
        15.0004         14.7504
  20982165.3304    2675151.34248   2087402.20247                  20982171.4124
        28.5004         28.2504
  21267148.1194    3870001.37047   3002953.12147                  21267154.0614
        25.5004         26.0004
  20952395.9944    1783436.88847   1409446.37847                  20952401.6314
        22.7504         26.5004
  22508192.3304   -1421616.26647  -1019311.13246                  22508199.7874
        23.7504         24.7504
  23557270.6114   -1131205.02846   -830297.31846                  23557277.9514
        14.0004         14.2504
 02  7  8 17 24 30.0020000  0  9G26G29G 6G23G15G17G18G21G 3
  23387490.7054    6598238.94846   5103734.25246                  23387498.1044
        15.0004         15.2504
  24384278.3854    7345866.53145   5673008.52745                  24384285.8184
        10.5004         11.2504
  23462350.2604   10195363.35446   7856381.38646                  23462359.1354
        13.2504         15.0004
  24045314.9164    9509085.29346   7324097.06946                  24045322.3614
        14.7504         14.5004
  20987814.4554    2704839.06748   2110535.49647                  20987820.6894
        28.7504         28.5004
  21274175.5414    3906932.05147   3031730.26847                  21274181.6004
        26.0004         26.0004
  20957552.9944    1810536.45347   1430562.92847                  20957558.7254
        22.7504         26.5004
  22508769.9714   -1418581.70347  -1016946.51446                  22508777.4284
        24.2504         25.0004
  23554934.3304   -1143479.62646   -839861.91846                  23554941.9514
        13.7504         14.5004
 02  7  8 17 24 45.0020000  0  9G26G29G 6G23G15G17G18G21G 3
  23399126.5494    6659385.39846   5151380.82746                  23399134.0294
        15.0004         15.2504
  24396345.1434    7409279.74545   5722421.36945                  24396352.8114
        10.7504         11.2504
  23477387.5104   10274383.89246   7917955.76546                  23477396.8074
        13.5004         15.0004
  24058790.8544    9579900.95046   7379278.08546                  24058798.3114
        14.7504         14.5004
  20993484.3074    2734634.67248   2133752.85047                  20993490.4244
        28.7504         28.5004
  21281222.4324    3943963.23247   3060585.73447                  21281228.4794
        25.7504         26.0004
  20962736.7834    1837778.60447   1451790.58247                  20962742.4794
        22.7504         26.5004
  22509368.1114   -1415438.26547  -1014497.05746                  22509375.2994
        24.5004         25.0004
  23552621.1584   -1155638.32946   -849336.22046                  23552628.4514
        14.0004         14.5004
 02  7  8 17 25  0.0020000  0  9G26G29G 6G23G15G17G18G21G 3
  23410793.6114    6720696.04046   5199155.34246                  23410800.3144
        15.2504         15.2504
  24408437.4554    7472824.12245   5771936.45445                  24408444.5254
        10.7504         11.0004
  23492442.5184   10353496.58746   7979601.93846                  23492451.6864
        13.7504         15.0004
  24072275.6504    9650763.62346   7434495.71546                  24072283.0614
        14.7504         14.5004
  20999173.8544    2764532.86348   2157050.13847                  20999179.9124
        28.5004         28.5004
  21288287.3614    3981089.52047   3089515.30947                  21288293.5024
        26.0004         26.2504
  20967947.0574    1865157.99447   1473125.17547                  20967952.7174
        23.0004         26.7504
  22509985.9634   -1412191.23247  -1011966.89246                  22509993.4084
        23.7504         25.0004
  23550328.2294   -1167686.14846   -858724.13346                  23550335.4394
        13.7504         14.2504
 02  7  8 17 25 15.0020000  0  9G26G29G 6G23G15G17G18G21G 3
  23422492.2134    6782173.60646   5247059.92646                  23422499.3304
        15.7504         15.2504
  24420554.7294    7536502.20445   5821555.71345                  24420562.4084
        10.5004         11.2504
  23507515.4864   10432704.06746   8041321.97546                  23507524.4904
        14.0004         15.2504
  24085770.1044    9721676.05046   7489752.12846                  24085777.3264
        14.7504         14.2504
  21004883.4714    2794536.56848   2180429.64947                  21004889.6934
        28.5004         28.5004
  21295371.0104    4018313.96647   3118521.37047                  21295377.1154
        25.7504         26.0004
  20973183.6824    1892677.24947   1494568.75147                  20973189.2484
        23.0004         26.5004
  22510624.0884   -1408837.60147  -1009353.65246                  22510631.5104
        23.2504         24.7504
  23548057.5884   -1179619.79746   -868023.05746                  23548064.7644
        14.0004         14.5004
 02  7  8 17 25 30.0020000  0  9G26G29G 6G23G15G17G18G21G 3
  23434222.6744    6843817.23746   5295093.90346                  23434229.4124
        15.7504         14.5004
  24432697.5184    7600313.27845   5871278.58845                  24432706.3114
        10.7504         11.0004
  23522605.5884   10512005.57146   8103115.28746                  23522614.4284
        13.5004         15.0004
  24099273.3224    9792637.55446   7545046.78746                  24099280.8734
        15.0004         14.2504
  21010612.8224    2824645.37948   2203891.06147                  21010619.0684
        28.2504         28.5004
  21302473.1114    4055636.10247   3147603.54347                  21302479.1584
        25.7504         26.0004
  20978447.0804    1920335.73747   1516120.82047                  20978452.6114
        23.0004         26.5004
  22511282.6114   -1405378.06247  -1006657.89046                  22511290.0684
        23.7504         25.0004
  23545808.0884   -1191439.54346   -877233.24146                  23545815.7324
        13.7504         14.0004
 02  7  8 17 25 45.0020000  0  9G26G29G 6G23G15G17G18G21G 3
  23445983.5804    6905623.41246   5343254.55046                  23445989.8264
        15.7504         15.0004
  24444865.1664    7664253.65745   5921102.23145                  24444872.1314
        10.7504         11.2504
  23537713.5104   10591397.46846   8164979.03046                  23537722.9714
        13.7504         14.7504
  24112785.4714    9863644.57646   7600376.91446                  24112792.5414
        14.7504         14.0004
  21016361.9324    2854855.99548   2227431.80047                  21016368.3774
        28.2504         28.5004
  21309593.4324    4093052.61847   3176759.27147                  21309599.4554
        25.5004         26.0004
  20983736.0184    1948130.10147   1537778.77047                  20983741.4674
        23.0004         26.5004
  22511960.1664   -1401815.75247  -1003882.04346                  22511967.5534
        24.0004         24.7504
  23543579.9244   -1203148.51846   -886357.09646                  23543587.8504
        13.7504         14.0004
 02  7  8 17 26  0.0020000  0  9G26G29G 6G23G15G17G18G21G 3
  23457776.8464    6967594.19746   5391543.45846                  23457783.5254
        15.2504         15.5004
  24457057.8774    7728325.65045   5971028.42945                  24457064.7834
        11.0004         11.0004
  23552839.0724   10670881.94546   8226914.90746                  23552847.4204
        13.5004         14.7504
  24126306.6824    9934699.40946   7655744.27246                  24126313.8464
        14.7504         14.0004
  21022130.3934    2885171.01848   2251053.89447                  21022136.9324
        28.2504         28.5004
  21316731.9004    4130566.07447   3205990.52747                  21316737.9244
        25.2504         25.7504
  20989051.6434    1976062.79247   1559544.50347                  20989057.1154
        23.0004         26.7504
  22512658.2684   -1398148.19347  -1001024.19146                  22512665.7714
        23.7504         24.7504
  23541373.3694   -1214743.73046   -895392.31846                  23541380.5684
        14.0004         14.2504
 02  7  8 17 26 15.0020000  0  9G26G29G 6G23G15G17G18G21G 3
  23469600.9164    7029730.38246   5439961.26246                  23469607.7134
        15.2504         15.2504
  24469275.6974    7792530.04345   6021057.79745                  24469282.0844
        11.0004         11.5004
  23567982.1434   10750459.76146   8288923.51146                  23567990.7254
        14.5004         14.7504
  24139837.2054   10005802.84946   7711149.52846                  24139844.5804
        14.7504         14.0004
  21027919.4244    2915591.46848   2274758.14547                  21027925.8574
        28.2504         28.5004
  21323889.1194    4168177.66947   3235298.26047                  21323895.2254
        25.2504         26.0004
  20994393.4324    2004134.62847   1581418.66247                  20994398.8464
        23.0004         26.5004
  22513376.1664   -1394374.56547   -998083.68346                  22513383.5644
        23.7504         24.5004
  23539189.3144   -1226223.94646   -904337.91946                  23539196.4204
        14.5004         14.5004
 02  7  8 17 26 30.0020000  0  9G26G29G 6G23G15G17G18G21G 3
  23481455.7754    7092029.46846   5488505.98746                  23481462.4084
        14.7504         15.0004
  24481517.9084    7856864.30945   6071188.36145                  24481524.8144
        11.0004         10.5004
  23583143.0724   10830128.50146   8351002.97846                  23583151.2214
        14.0004         15.0004
  24153376.7994   10076952.51946   7766590.79846                  24153383.5964
        14.5004         14.5004
  21033727.8464    2946115.15548   2298542.83947                  21033734.3144
        28.2504         28.5004
  21331064.6504    4205885.13947   3264680.70247                  21331070.7684
        24.7504         26.0004
  20999761.4164    2032343.33247   1603399.47147                  20999766.9364
        23.0004         26.7504
  22514114.1434   -1390497.10647   -995062.26346                  22514121.3894
        23.7504         24.2504
  23537025.4794   -1237591.07946   -913195.41246                  23537032.5494
        14.5004         14.7504
 02  7  8 17 26 45.0020000  0  9G26G29G 6G23G15G17G18G21G 3
  23493341.7914    7154488.36446   5537175.24146                  23493348.2604
        15.0004         15.0004
  24493784.5804    7921325.33545   6121417.69845                  24493791.2364
        11.0004         10.0004
  23598319.8144   10909884.99246   8413150.82346                  23598328.9004
        13.7504         14.7504
  24166924.1664   10148145.35846   7822065.72046                  24166931.6584
        14.5004         14.2504
  21039555.4864    2976739.27648   2322405.79247                  21039561.9324
        28.0004         28.5004
  21338257.7754    4243685.82147   3294135.77847                  21338263.9164
        25.0004         26.0004
  21005154.9084    2060685.92847   1625484.61847                  21005160.4864
        22.7504         26.5004
  22514871.1274   -1386518.44047   -991961.97946                  22514878.1744
        24.2504         24.5004
  23534883.7754   -1248847.63146   -921966.73446                  23534890.8344
        14.7504         14.5004
 02  7  8 17 27  0.0020000  0  9G26G29G 6G23G15G17G18G21G 3
  23505257.2754    7217105.89046   5585968.09946                  23505264.0024
        14.7504         15.0004
  24506074.7754    7985911.89045   6171744.86445                  24506081.3854
        10.5004         10.5004
  23613513.4714   10989728.10446   8475366.14846                  23613522.7094
        13.5004         14.7504
  24180479.9864   10219380.32746   7877573.44346                  24180487.0334
        14.5004         14.5004
  21045401.9634    3007463.07047   2346346.40947                  21045408.4324
        27.7504         28.5004
  21345468.5104    4281578.68147   3323662.67547                  21345474.6624
        25.0004         26.0004
  21010573.4794    2089161.48647   1647673.36547                  21010578.9514
        22.7504         26.7504
  22515647.5884   -1382439.52547   -988783.58546                  22515654.8814
        24.2504         24.7504
  23532762.6194   -1259994.24546   -930652.39946                  23532769.5254
        14.7504         14.7504
 02  7  8 17 27 15.0020000  0  9G26G29G 6G23G15G17G18G21G 3
  23517204.1504    7279888.08046   5634889.27046                  23517210.3854
        14.7504         14.7504
  24518390.8614    8050630.17145   6222174.67045                  24518397.2604
        10.5004         10.7504
  23628725.1894   11069663.98446   8537653.75946                  23628734.7094
        13.7504         14.5004
  24194044.5184   10290663.58446   7933118.81646                  24194051.6114
        14.2504         14.5004
  21051268.7134    3038292.97448   2370369.71647                  21051275.1584
        28.0004         28.5004
  21352698.2684    4319570.44247   3353266.63847                  21352704.5614
        25.2504         26.2504
  21016018.5964    2117776.16347   1669970.52147                  21016024.1974
        22.7504         26.5004
  22516443.9554   -1378253.94247   -985522.07446                  22516451.0964
        23.7504         24.5004
  23530663.9164   -1271024.20046   -939247.15346                  23530670.9984
        15.0004         14.7504
 02  7  8 17 27 30.0020000  0  9G26G29G 6G23G15G17G18G21G 3
  23529181.3854    7342829.48346   5683934.50746                  23529187.6434
        14.7504         15.0004
  24530730.3464    8115474.73545   6272702.84845                  24530736.8504
        10.2504         10.2504
  23643952.9944   11149687.11946   8600009.35546                  23643962.2324
        13.5004         14.7504
  24207617.5724   10361989.76846   7988697.62146                  24207624.9594
        14.2504         14.5004
  21057154.6434    3069223.93648   2394471.76347                  21057161.1354
        28.7504         28.7504
  21359945.4394    4357655.75047   3382943.49747                  21359951.5684
        25.2504         26.0004
  21021489.4474    2146524.69547   1692371.97647                  21021495.0964
        22.7504         26.5004
  22517259.5104   -1373966.99347   -982181.57046                  22517266.8384
        23.2504         24.0004
  23528586.2294   -1281942.33846   -947754.78946                  23528593.0494
        15.2504         15.2504
 02  7  8 17 27 45.0020000  0  9G26G29G 6G23G15G17G18G21G 3
  23541190.2134    7405936.97346   5733109.16046                  23541197.2714
        14.7504         15.0004
  24543095.0184    8180452.34045   6323334.74245                  24543102.1704
        10.2504         10.0004
  23659198.9634   11229804.42146   8662438.34846                  23659208.1434
        14.0004         15.0004
  24221200.2214   10433365.85746   8044315.32746                  24221208.0414
        14.5004         14.5004
  21063061.2754    3100263.05348   2418658.09447                  21063067.7684
        28.7504         28.7504
  21367212.0334    4395842.00447   3412699.01947                  21367218.4204
        25.5004         26.2504
  21026986.8304    2175414.17847   1714883.26947                  21026992.5374
        23.0004         26.7504
  22518095.6744   -1369571.49347   -978756.48846                  22518103.0614
        23.5004         24.2504
  23526531.2524   -1292741.24146   -956169.49146                  23526538.3344
        15.7504         15.2504
 02  7  8 17 28  0.0020000  0  9G26G29G 6G23G15G17G18G21G 3
  23553229.1194    7469199.14446   5782404.34246                  23553235.9044
        15.0004         14.7504
  24555482.7364    8245551.78245   6374061.54645                  24555488.8074
        10.0004         10.5004
  23674460.7994   11310004.52746   8724931.85146                  23674470.5534
        13.7504         14.5004
  24234790.1194   10504780.59246   8099963.14546                  24234797.5184
        14.5004         14.5004
  21068986.2684    3131399.34148   2442920.13347                  21068992.7134
        28.7504         28.7504
  21374495.8304    4434118.10447   3442524.54447                  21374501.9594
        26.2504         26.2504
  21032509.2684    2204433.38447   1737495.64547                  21032514.6704
        23.0004         26.7504
  22518950.8854   -1365078.64647   -975255.55346                  22518958.0844
        23.5004         24.0004
  23524496.9944   -1303431.67746   -964499.69446                  23524503.9594
        15.2504         15.5004
 02  7  8 17 28 15.0020000  0  9G26G29G 6G23G15G17G18G21G 3
  23565297.1044    7532616.80846   5831820.68646                  23565304.3734
        15.0004         15.0004
  24567894.3774    8310774.02045   6424884.04145                  24567902.1744
         9.7504         10.0004
  23689737.9944   11390288.31246   8787490.55846                  23689746.8574
        13.5004         14.2504
  24248387.3074   10576234.90246   8155641.77946                  24248394.5884
        14.5004         14.5004
  21074930.1504    3162634.02348   2467258.84247                  21074936.6664
        29.0004         28.7504
  21381796.9714    4472485.28147   3472421.03847                  21381802.9364
        26.2504         26.2504
  21038056.0884    2233583.34447   1760209.90047                  21038061.8074
        23.2504         26.7504
  22519824.6194   -1360487.11247   -971677.72546                  22519831.5844
        23.2504         24.0004
  23522483.5024   -1314012.15146   -972744.20746                  23522491.0294
        15.0004         15.5004
 02  7  8 17 28 30.0020000  0  9G26G29G 6G23G15G17G18G21G 3
  23577395.0494    7596193.01546   5881360.58346                  23577402.2484
        15.2504         15.0004
  24580329.4394    8376121.81845   6475804.36245                  24580336.6504
         9.7504         10.7504
  23705032.2604   11470658.79446   8850116.82046                  23705041.5454
        13.7504         14.5004
  24261992.6434   10647731.89846   8211353.69446                  24262000.2644
        14.2504         14.2504
  21080893.1744    3193970.50548   2491676.88147                  21080899.5374
        28.5004         28.7504
  21389115.9714    4510946.86347   3502391.09647                  21389122.2174
        26.2504         26.2504
  21043628.6504    2262867.18047   1783028.47947                  21043634.3344
        22.7504         27.0004
  22520717.8614   -1355793.52047   -968020.36046                  22520724.7914
        23.2504         23.5004
  23520491.8544   -1324479.04146   -980900.21646                  23520498.7714
        15.0004         15.5004
 02  7  8 17 28 45.0020000  0  9G26G29G 6G23G15G17G18G21G 3
  23589523.3694    7659926.92046   5931023.34346                  23589530.5334
        15.5004         15.2504
  24592789.0964    8441594.48045   6526822.00945                  24592796.3894
         9.7504         10.5004
  23720342.6354   11551115.18646   8912810.04046                  23720351.7564
        13.5004         14.7504
  24275605.8464   10719270.87046   8267098.32846                  24275613.3264
        14.0004         14.5004
  21086875.6194    3225408.17148   2516173.75847                  21086881.8894
        28.5004         28.5004
  21396452.8304    4549502.41047   3532434.37047                  21396458.9364
        26.2504         26.2504
  21049226.6194    2292284.30847   1805950.92047                  21049232.2794
        22.7504         26.7504
  22521630.2994   -1350998.43047   -964283.90946                  22521637.3934
        23.0004         23.7504
  23518521.2994   -1334832.61646   -988967.92246                  23518528.0614
        15.0004         15.7504
 02  7  8 17 29  0.0020000  0  9G26G29G 6G23G15G17G18G21G 3
  23601681.0804    7723815.89646   5980806.95246                  23601688.5374
        15.0004         15.0004
  24605271.0334    8507189.38245   6577934.89645                  24605279.0184
         9.2504         10.5004
  23735669.4004   11631654.88346   8975568.14646                  23735678.6504
        13.7504         14.5004
  24289226.8854   10790849.28646   8322873.68446                  24289234.5064
        14.0004         14.5004
  21092876.6434    3256944.87048   2540747.80947                  21092882.9124
        28.7504         28.5004
  21403807.1114    4588149.68247   3562549.12447                  21403813.1004
        26.0004         26.2504
  21054849.3694    2321832.19247   1828975.25947                  21054855.0064
        23.0004         26.7504
  22522561.4944   -1346104.38147   -960470.34946                  22522568.6704
        23.0004         24.0004
  23516572.0964   -1345074.92646   -996948.91846                  23516578.6114
        15.0004         15.5004
 02  7  8 17 29 15.0020000  0  9G26G29G 6G23G15G17G18G21G 3
  23613869.1664    7787862.98846   6030713.76146                  23613876.2014
        14.5004         14.7504
  24617776.9554    8572909.61245   6629145.42845                  24617784.8934
         9.5004         10.5004
  23751011.4634   11712280.90146   9038393.53146                  23751020.9244
        13.5004         14.2504
  24302856.2214   10862470.31946   8378682.24346                  24302863.3504
        13.5004         14.7504
  21098897.5964    3288584.03248   2565401.69747                  21098903.7364
        28.7504         28.5004
  21411179.6664    4626891.97347   3592737.91647                  21411185.9124
        26.0004         26.2504
  21060497.5104    2351514.08847   1852104.01047                  21060503.3344
        23.0004         27.0004
  22523512.2524   -1341107.99647   -956577.04646                  22523519.2754
        23.0004         24.0004
  23514644.7444   -1355202.32646  -1004840.38146                  23514652.1664
        15.0004         15.5004
 02  7  8 17 29 30.0020000  0  9G26G29G 6G23G15G17G18G21G 3
  23626087.4084    7852073.13746   6080747.63046                  23626094.9944
        14.7504         15.0004
  24630308.2364    8638760.20945   6680457.57645                  24630315.3184
        10.2504         10.7504
  23766371.7754   11792998.27046   9101290.09546                  23766381.6824
        12.7504         13.7504
  24316494.0024   10934139.10246   8434528.02046                  24316501.8574
        13.5004         14.2504
  21104938.8464    3320331.01348   2590139.59747                  21104945.0214
        28.7504         28.5004
  21418571.1194    4665734.78747   3623005.04447                  21418577.2014
        25.7504         26.2504
  21066172.1504    2381335.25247   1875341.28547                  21066177.9044
        22.7504         26.7504
  22524483.4944   -1336003.81247   -952599.74646                  22524490.8464
        23.0004         24.2504
  23512741.0104   -1365209.12646  -1012637.87146                  23512748.2914
        15.0004         15.5004
 02  7  8 17 29 45.0020000  0  9G26G29G 6G23G15G17G18G21G 3
  23638334.6824    7916431.03346   6130896.63246                  23638342.1624
        14.5004         15.2504
  24642860.9394    8704725.78445   6731859.28745                  24642867.5144
        10.5004         11.0004
  23781745.9794   11873791.70746   9164245.92546                  23781755.1704
        12.5004         13.7504
  24330138.4164   11005840.40246   8490399.11646                  24330145.9794
        13.2504         14.2504
  21110997.7604    3352170.79048   2614949.81547                  21111004.0884
        28.2504         28.5004
  21425978.8384    4704663.13947   3653338.81647                  21425984.8854
        25.7504         26.2504
  21071870.6894    2411280.52647   1898675.26747                  21071876.4084
        22.2504         26.7504
  22525472.5024   -1330806.73747   -948550.05846                  22525479.8774
        22.7504         24.0004
  23510856.7134   -1375110.10446  -1020352.90246                  23510863.8424
        15.0004         15.2504
 02  7  8 17 30  0.0020000  0  9G26G29G 6G23G15G17G18G21G 3
  23650610.9864    7980943.54246   6181166.10046                  23650618.1274
        14.2504         14.7504
  24655436.8934    8770813.38845   6783356.10445                  24655444.0334
        10.2504         10.7504
  23797136.6584   11954668.17846   9227266.45746                  23797146.7174
        12.2504         14.0004
  24343790.4164   11077581.25546   8546301.05246                  24343798.4824
        13.2504         13.7504
  21117075.6504    3384110.65648   2639838.01747                  21117082.0844
        28.2504         28.5004
  21433404.3304    4743684.20647   3683744.83847                  21433410.5064
        26.0004         26.2504
  21077593.8144    2441356.99747   1922111.48547                  21077599.6974
        22.5004         26.7504
  22526480.5574   -1325509.68847   -944422.47246                  22526487.8034
        23.0004         24.0004
  23508993.8934   -1384897.80946  -1027979.67146                  23509001.0454
        15.0004         15.2504
